GFSNE_700_rhum_000.txt.gz
RH
49 54 64 68 67 64 65 79 82 79 73 76 77 76 72 67 75 76 78 72 84 85 62 63 64 57 54 64 70 72 81 82 82 73 66 85 74 65
40 41 46 51 54 58 65 69 73 79 79 73 74 76 78 80 78 75 75 78 89 90 70 69 76 81 75 77 76 78 80 87 82 66 86 95 80 71
32 29 27 26 28 31 44 55 58 67 70 54 70 75 78 73 76 80 76 76 84 88 71 67 63 87 99 96 81 92 100 87 82 86 84 100 100 92
33 32 30 29 28 26 31 38 45 55 73 70 50 52 68 74 70 75 79 83 86 93 81 67 62 82 96 99 98 99 99 100 88 99 98 95 99 90
23 25 25 27 29 33 36 35 35 36 43 59 48 53 61 71 78 76 73 75 89 98 98 75 71 74 84 94 99 100 98 98 92 99 99 80 97 70
10 18 21 28 33 36 42 40 42 46 49 67 69 64 71 68 74 75 72 75 78 99 99 99 96 95 99 99 99 98 99 99 99 99 100 97 96 85
3 3 7 24 42 52 58 50 55 55 48 59 66 94 99 98 94 85 84 90 87 93 88 99 100 100 95 99 99 98 98 99 99 99 98 97 94 80
4 5 5 12 42 58 66 71 69 67 60 57 54 53 57 70 98 97 99 98 94 65 90 92 97 97 99 99 99 98 99 99 99 98 98 96 77 82
8 8 14 33 48 91 88 81 74 72 70 63 56 50 52 54 80 90 94 78 94 93 99 97 95 98 99 99 99 99 99 98 98 98 97 82 80 63
14 22 36 38 52 100 91 86 83 77 71 64 57 51 54 50 59 68 97 84 82 94 97 100 100 95 92 100 98 98 98 98 98 98 83 79 59 4
9 9 18 27 34 71 94 92 86 81 75 65 54 49 52 60 79 100 94 100 97 98 98 97 98 100 99 99 98 98 98 98 98 88 78 51 1 9
11 9 9 15 24 31 62 93 90 86 77 62 50 48 64 64 83 98 97 97 99 99 99 99 99 99 99 99 98 98 98 98 92 80 38 0 10 10
13 12 10 13 20 24 41 92 95 94 82 72 68 63 62 60 72 88 98 98 97 98 99 98 99 98 98 98 98 98 97 94 76 15 2 10 11 18
18 14 13 15 20 23 37 82 96 95 92 83 78 73 94 87 97 99 93 98 98 99 100 99 98 97 98 98 98 97 94 64 9 5 11 14 26 31
24 16 13 13 18 22 41 82 95 94 94 93 89 86 100 100 100 96 98 98 98 99 98 98 98 98 98 97 97 96 76 20 7 13 24 32 37 40
26 18 13 12 16 24 40 89 81 96 98 96 87 84 97 98 100 97 98 97 97 97 96 96 97 97 97 97 96 62 11 10 19 30 36 38 39 42
32 24 14 12 15 24 38 78 47 93 96 97 94 99 100 97 97 97 97 96 96 97 97 97 97 97 96 88 22 8 13 26 33 37 43 44 43 46
37 29 15 14 16 22 33 37 45 92 96 98 98 97 97 97 97 97 96 96 96 97 97 97 96 80 16 10 13 19 29 36 42 42 42 45 50 56
44 32 18 17 16 19 23 25 53 95 96 96 96 96 97 97 97 96 96 97 97 97 97 92 12 12 14 17 26 35 42 42 38 40 45 51 58 69
41 33 20 18 16 15 19 22 62 95 96 96 96 96 96 96 96 96 96 97 97 96 45 14 13 16 25 37 41 38 38 42 49 62 73 76 82 85
38 35 24 18 14 13 16 25 85 96 96 96 96 96 96 96 96 96 96 96 82 22 13 15 27 37 40 39 41 49 55 65 78 91 96 96 99 100
41 39 25 17 13 14 13 41 94 96 95 96 96 96 96 96 96 96 93 32 16 14 26 37 39 41 48 56 65 76 92 94 81 75 82 91 89 83
44 41 25 15 12 14 14 72 96 96 95 96 96 96 96 96 90 23 19 13 28 39 40 41 54 64 77 94 95 93 62 41 42 61 67 69 96 94

GFSNE_700_rhum_003.txt.gz
RH
43 41 42 42 43 43 44 52 75 73 65 57 61 57 60 65 74 77 74 71 86 95 98 98 93 81 75 75 58 53 56 65 74 91 99 94 95 84
40 39 41 43 42 38 35 32 33 57 75 51 57 56 62 67 65 64 68 71 66 78 96 99 100 99 98 90 70 68 62 61 79 97 98 95 96 80
29 30 30 34 35 36 36 38 38 39 41 31 31 30 31 31 37 57 65 67 70 63 70 89 99 99 99 99 97 95 77 68 80 95 99 98 95 88
2 2 4 10 13 15 16 18 24 31 47 46 24 31 34 31 30 38 57 68 74 75 77 77 80 99 99 99 98 93 88 85 95 98 99 96 97 98
6 5 4 3 2 2 2 2 3 6 14 44 44 28 30 36 43 69 77 78 70 72 78 75 73 76 97 96 99 92 91 99 99 100 98 99 99 99
6 6 5 5 4 4 5 5 5 6 10 28 46 35 34 32 52 55 56 99 100 98 88 84 81 78 76 86 98 100 95 96 98 99 99 99 100 99
7 6 5 5 5 5 6 5 13 28 32 55 69 65 50 48 62 61 60 53 58 68 82 93 89 87 79 73 99 96 99 99 100 98 98 99 99 99
8 6 5 4 4 5 4 8 37 90 100 100 96 94 80 82 72 66 62 60 50 52 54 51 68 75 88 95 93 95 100 100 99 99 99 99 99 99
9 8 7 6 7 7 7 7 12 33 69 96 93 89 86 87 80 69 64 59 52 49 54 48 56 59 66 99 98 88 96 98 99 98 99 98 98 98
10 10 10 10 12 12 10 8 8 17 32 64 88 96 96 95 81 71 64 63 50 46 51 62 62 87 71 90 99 100 95 99 98 99 98 98 98 98
13 15 17 17 16 14 12 9 10 17 26 38 60 95 97 96 86 86 76 86 60 52 58 93 71 96 98 84 98 98 98 98 98 98 98 98 98 97
22 19 19 24 22 18 13 15 31 36 34 33 60 83 96 96 91 99 100 100 100 82 88 100 90 97 100 99 98 98 98 98 98 97 97 98 97 95
38 30 31 27 26 21 14 17 25 31 34 63 71 86 96 97 89 90 100 100 99 100 100 99 98 99 100 98 98 98 98 98 97 97 97 97 96 70
39 36 29 31 32 23 16 18 25 32 45 62 89 93 97 98 99 100 100 98 99 99 99 99 98 98 98 98 98 98 98 97 97 97 97 86 18 1
40 34 33 38 34 25 18 20 26 34 35 90 95 96 94 94 92 94 100 98 98 98 95 97 97 98 98 97 97 98 97 97 97 96 86 22 5 10
62 31 39 40 43 30 20 21 24 24 81 74 92 96 95 97 99 99 98 97 96 96 96 97 97 97 97 96 97 97 96 96 96 60 6 8 22 35
80 40 38 43 40 26 19 20 18 30 52 71 96 95 94 98 98 96 96 96 96 96 96 96 96 96 96 96 97 96 94 51 9 10 24 36 39 42
46 44 44 49 45 26 19 16 13 20 33 90 96 95 95 96 96 96 96 96 96 96 96 96 96 96 97 96 68 13 8 11 23 35 40 44 46 47
46 45 50 50 45 26 20 14 9 9 70 95 95 95 95 96 96 96 96 96 96 96 96 96 96 73 10 10 12 13 21 31 43 47 48 47 48 50
45 48 53 51 44 27 19 11 4 29 94 96 96 96 96 96 96 96 96 95 96 96 89 32 13 16 18 19 29 40 45 45 43 45 49 54 59 67
46 51 55 52 41 26 17 7 9 73 96 96 96 96 96 96 96 96 96 96 90 30 20 17 20 36 44 42 40 41 48 58 69 77 83 89 90 90
54 55 53 50 38 23 12 2 38 95 96 96 96 96 96 96 96 96 93 39 21 15 31 45 44 43 49 61 68 73 83 95 98 88 81 90 98 100
57 55 51 47 31 17 7 7 92 96 96 96 96 96 96 96 63 30 19 23 49 51 49 55 67 71 85 94 91 89 81 56 40 40 47 64 94 100

GFSNE_700_rhum_006.txt.gz
RH
34 29 25 25 22 27 36 43 54 52 42 37 38 36 35 33 31 31 30 36 52 65 66 84 96 98 100 100 98 96 85 80 82 88 83 82 96 99
12 10 8 6 4 3 4 14 32 52 56 27 20 24 23 27 27 30 32 32 32 33 44 63 65 68 89 100 99 100 90 90 90 92 91 90 85 96
14 12 11 9 7 6 5 5 4 16 50 3 6 6 6 6 5 9 13 22 33 35 38 50 61 70 71 86 97 100 98 99 98 97 99 97 95 83
14 13 12 10 8 7 6 6 6 9 18 9 6 6 6 5 5 5 5 6 17 29 65 72 77 73 78 74 80 88 92 99 98 99 100 98 100 89
14 14 13 12 10 8 7 6 6 6 6 9 5 5 6 5 5 5 6 6 15 22 42 73 99 84 84 88 80 81 82 77 96 98 99 99 100 96
17 18 17 16 13 10 8 7 6 6 5 6 4 4 4 4 5 8 6 14 14 36 45 47 54 90 99 97 96 94 84 78 78 80 92 99 98 100
20 25 23 19 15 11 10 8 8 8 7 7 6 5 4 4 9 18 39 38 28 46 57 59 54 52 52 51 70 81 93 96 89 92 90 99 97 99
29 25 20 15 12 11 10 12 17 18 14 11 10 9 7 16 29 40 93 76 62 65 63 56 57 52 48 45 51 66 76 99 84 87 83 97 99 99
23 18 15 12 12 13 18 25 25 21 19 14 16 14 19 28 88 78 69 92 78 78 79 60 58 50 47 42 40 53 61 66 96 94 88 98 97 99
17 14 14 12 16 26 31 36 31 27 18 11 25 88 78 100 60 78 85 96 87 78 78 63 56 47 46 41 40 55 71 68 76 91 94 96 99 98
15 16 20 24 23 34 78 45 34 25 14 10 29 58 58 53 74 91 95 96 87 86 78 81 56 58 59 50 57 76 80 84 79 95 98 98 98 98
17 20 27 37 32 42 50 49 40 24 14 12 18 26 42 54 75 99 98 95 98 92 80 99 94 84 70 54 92 81 89 90 100 95 98 97 98 98
30 30 34 41 36 48 53 49 43 23 17 23 29 35 43 75 97 96 96 96 97 98 94 92 84 95 100 87 100 94 95 99 99 97 97 98 98 96
38 41 63 95 55 55 47 47 36 23 23 25 27 38 79 92 95 96 97 98 98 93 91 100 94 92 91 97 98 98 97 98 97 97 97 97 96 96
45 63 76 54 49 45 46 47 31 25 23 20 26 72 58 87 97 97 93 97 98 96 95 96 97 98 98 97 96 97 97 97 97 96 96 96 96 97
64 95 43 43 45 46 47 40 26 24 18 21 55 48 83 94 94 93 91 96 94 96 96 96 94 96 96 96 96 96 97 97 96 96 97 96 96 94
66 48 40 40 40 42 42 30 23 18 10 13 37 70 90 88 88 94 95 95 96 96 96 96 97 96 96 96 96 96 96 96 96 97 96 95 70 18
52 50 44 45 45 47 40 24 20 10 11 52 67 93 92 92 93 96 96 96 96 96 95 95 96 96 96 96 96 96 97 96 96 87 54 19 18 30
60 55 52 49 50 48 39 27 17 10 63 86 95 94 96 97 96 96 96 96 96 96 95 95 96 96 96 94 94 83 49 20 16 24 36 46 50 52
66 62 53 51 51 47 35 25 9 51 94 95 96 98 97 98 97 96 96 96 96 96 96 93 80 51 36 27 23 23 28 36 46 50 51 53 53 51
66 58 55 54 51 42 31 17 32 95 96 96 97 97 96 97 97 96 96 96 95 68 31 25 21 23 31 39 45 48 48 49 50 50 50 54 58 59
66 59 55 53 49 35 25 22 88 96 96 97 97 95 97 97 96 95 94 87 54 26 32 50 53 52 50 51 57 65 69 72 77 81 87 91 96 97
65 57 53 52 41 30 23 84 97 97 96 96 96 96 95 85 56 30 28 56 61 59 58 68 81 88 93 98 97 98 100 95 87 77 74 73 82 89

GFSNE_700_rhum_009.txt.gz
RH
24 19 17 17 16 15 14 11 10 29 9 13 7 7 8 10 17 28 28 22 22 21 22 25 30 32 35 78 92 95 91 92 100 99 100 98 99 94
25 24 20 17 16 16 16 15 12 11 13 10 9 8 7 7 7 7 7 8 7 7 7 8 14 20 30 32 36 69 78 95 95 98 99 99 99 99
23 15 13 14 14 15 16 17 17 14 12 10 9 8 7 6 6 6 6 6 6 6 6 6 6 12 26 31 41 39 59 80 87 92 98 99 99 99
14 15 14 14 14 17 19 20 20 18 14 13 10 8 7 6 6 6 6 5 6 6 6 6 6 6 15 32 33 65 62 65 76 80 87 94 99 99
12 14 15 18 20 24 24 22 20 17 14 16 12 10 8 7 6 5 5 5 5 5 5 5 5 7 14 34 66 44 96 85 86 96 93 89 90 98
12 16 19 23 21 19 18 17 15 14 15 34 22 13 12 9 9 7 5 4 4 4 4 4 5 10 17 43 61 68 96 98 100 97 84 81 83 81
14 17 18 18 17 16 15 14 15 23 28 31 23 30 18 14 11 9 7 7 7 20 54 35 19 29 41 43 58 61 57 90 95 97 90 72 69 58
16 16 16 16 15 16 18 23 28 100 96 100 64 39 26 21 16 48 75 90 99 59 45 47 86 61 56 66 56 59 57 52 44 54 60 73 69 65
16 14 15 17 20 23 24 40 93 48 57 51 48 42 31 18 46 85 98 99 97 46 62 74 86 72 75 67 62 56 52 51 45 52 49 50 69 72
15 18 19 22 31 36 56 100 59 50 38 37 40 31 21 16 25 56 65 63 50 61 91 90 82 90 79 66 61 56 48 42 38 39 38 37 56 85
20 22 25 34 41 59 100 68 48 33 34 39 32 21 24 27 36 46 68 87 73 79 96 92 92 97 94 72 66 61 53 50 45 40 45 59 61 87
22 26 33 41 52 98 82 70 45 38 36 32 18 20 26 30 56 98 99 94 92 83 97 95 98 100 85 76 76 78 56 81 76 71 84 81 88 95
28 33 37 44 100 70 53 46 46 46 43 27 21 21 22 40 85 96 97 96 92 87 97 96 93 100 100 88 91 98 90 86 79 86 98 91 89 97
42 40 39 65 42 41 43 43 48 51 38 26 22 17 32 60 64 84 96 97 98 99 98 100 92 96 96 91 92 99 100 98 100 95 95 98 100 98
46 40 43 42 40 42 43 48 56 46 30 23 14 28 56 49 55 94 94 94 98 99 98 100 99 95 93 92 96 100 99 99 100 95 96 95 99 97
48 46 48 47 45 46 45 50 47 34 28 21 51 77 69 77 88 87 89 95 98 98 98 97 96 95 96 98 100 98 97 95 97 97 97 97 96 95
52 52 52 50 46 43 47 48 35 28 18 70 96 92 90 88 90 97 100 99 97 96 96 96 96 96 97 97 98 98 96 96 97 96 96 96 96 96
56 64 61 58 52 51 48 35 28 22 85 100 97 97 93 96 98 97 97 96 96 96 96 96 95 96 96 96 96 96 96 96 96 96 96 96 96 96
71 69 65 58 55 54 49 35 24 88 98 97 96 96 97 98 96 97 96 96 96 96 96 96 96 96 97 96 95 96 96 96 96 96 96 96 95 95
74 68 62 60 57 54 42 32 75 98 98 97 98 98 98 96 97 97 97 96 96 97 96 96 95 95 94 85 90 94 94 92 79 60 44 37 32 32
70 65 63 60 57 48 36 68 98 97 97 98 99 98 97 97 97 97 96 96 95 95 88 54 36 28 28 30 31 30 31 34 44 56 59 60 62 61
70 62 59 58 51 39 59 98 97 97 97 97 97 97 95 96 96 95 93 85 56 36 50 58 59 57 56 57 56 58 58 59 60 60 57 57 58 58
66 58 56 53 40 52 98 98 97 97 97 96 93 57 38 38 47 63 72 73 73 75 82 91 94 95 97 97 96 94 90 86 86 90 94 94 92 93

GFSNE_700_rhum_012.txt.gz
RH
11 8 8 8 8 8 9 12 21 21 12 6 9 10 16 14 13 12 10 9 8 7 7 20 36 38 36 39 42 36 31 34 49 80 96 98 97 100
5 4 5 5 6 7 9 12 20 29 28 11 8 9 13 15 14 14 12 10 8 7 7 7 8 12 12 11 16 31 38 38 33 31 36 60 90 100
4 5 6 8 8 10 12 16 18 22 34 12 12 8 8 11 11 13 12 11 9 8 7 6 6 6 6 7 7 6 8 21 32 34 32 40 60 86
5 6 7 9 11 14 16 16 16 18 68 74 23 21 13 13 27 34 11 10 10 8 7 6 6 6 6 6 6 6 6 6 20 27 35 39 46 64
5 4 6 11 13 15 15 15 17 40 93 89 66 80 76 59 66 59 42 18 16 10 8 6 5 5 5 6 6 5 6 6 7 23 38 38 55 70
4 4 7 10 11 11 12 15 35 94 82 88 85 84 76 59 49 27 23 23 32 22 13 20 15 22 26 12 7 6 5 6 6 21 82 57 63 75
5 5 7 8 10 13 17 19 48 66 90 88 83 75 62 31 30 30 54 23 19 51 79 70 65 73 80 74 44 22 11 5 6 16 56 99 59 89
6 6 8 10 15 18 21 33 37 93 99 94 81 87 41 41 38 36 26 20 12 13 83 81 82 63 32 41 51 46 25 10 6 20 48 81 100 99
8 11 13 17 21 23 26 34 89 100 91 94 100 74 45 41 37 22 20 57 25 24 58 35 40 56 72 79 88 89 82 54 27 30 42 46 60 88
12 16 17 21 26 32 39 64 100 58 51 54 48 46 49 37 30 34 34 35 46 59 100 74 82 84 92 89 95 98 100 89 69 53 49 46 38 32
14 18 28 33 34 38 98 100 91 44 40 38 41 48 40 28 31 38 44 90 84 88 98 94 95 93 93 95 98 96 98 92 71 61 52 48 44 32
18 26 33 35 37 49 93 98 62 40 38 34 39 35 26 23 24 54 94 98 95 92 98 96 96 95 82 96 96 96 98 89 71 56 49 44 41 37
26 29 33 39 46 43 51 76 59 48 42 47 39 26 22 18 31 68 98 97 95 91 98 97 94 94 94 82 96 97 98 100 90 59 59 64 53 58
34 36 39 46 50 55 55 57 51 51 54 47 33 22 16 45 89 98 98 97 97 92 95 100 96 95 93 89 87 97 98 98 100 100 99 100 100 100
45 50 48 54 62 58 56 54 58 59 49 37 26 37 92 99 100 98 91 92 92 99 100 99 96 95 92 91 95 97 99 98 97 97 100 99 98 100
64 53 56 63 62 60 55 58 60 52 49 55 82 95 96 98 98 100 97 99 100 98 98 97 96 96 95 95 96 96 98 100 98 97 97 97 98 98
60 54 60 64 60 55 56 57 48 47 72 97 97 97 98 97 98 99 99 97 97 97 96 96 96 97 96 96 97 96 96 98 97 98 96 97 97 97
56 64 68 65 59 56 54 43 46 90 97 98 99 99 97 97 97 97 97 97 97 96 96 96 96 96 96 96 96 97 96 96 97 97 96 96 96 96
67 72 68 62 58 58 54 53 87 97 98 98 98 97 98 98 97 97 97 97 97 97 96 96 96 96 97 97 96 96 96 96 96 96 96 96 96 96
74 70 64 60 59 57 54 91 97 97 98 97 97 97 97 97 96 97 96 97 97 96 96 96 96 97 97 96 95 95 97 96 96 96 95 95 96 96
71 66 61 61 58 56 92 98 98 97 97 97 97 97 97 97 97 97 96 96 95 94 94 95 92 89 82 91 97 96 96 96 97 97 96 96 96 95
71 59 58 60 58 94 97 97 97 97 97 91 73 61 74 72 66 69 74 68 69 71 69 66 64 62 53 44 36 35 38 47 57 55 46 40 40 42
61 55 58 58 95 97 97 97 97 78 46 77 97 97 98 99 99 98 99 99 98 99 98 98 98 94 72 66 66 66 71 73 74 73 72 72 71 72

GFSNE_700_rhum_015.txt.gz
RH
5 6 6 5 5 4 4 3 7 4 2 2 3 5 7 10 11 10 10 9 10 10 9 10 11 11 9 8 9 22 38 44 45 46 54 77 85 92
6 6 6 6 5 4 4 4 8 17 18 4 4 5 6 12 26 37 25 21 13 11 10 10 8 8 9 9 7 8 13 31 38 39 41 51 74 65
6 6 6 5 5 4 4 5 7 14 55 6 11 8 9 18 23 58 62 68 40 23 24 15 13 10 8 8 8 7 6 8 16 18 20 33 45 48
6 6 6 5 5 5 5 6 8 11 27 65 21 39 28 30 58 70 70 62 46 15 13 18 60 90 12 8 7 7 6 6 6 7 7 8 11 23
7 6 6 6 5 6 7 10 14 22 55 96 66 60 74 79 75 72 67 35 25 23 24 37 30 24 34 19 18 9 7 6 6 6 6 6 6 7
7 6 6 6 6 8 11 15 30 36 49 93 96 89 94 76 85 78 38 30 22 27 31 24 19 19 63 80 91 93 63 14 6 6 6 6 6 6
7 6 6 6 7 11 34 41 45 54 68 72 94 95 91 59 48 40 40 29 25 31 23 14 26 32 76 84 88 91 94 71 16 6 6 6 6 7
7 6 6 7 10 14 24 33 75 100 100 100 100 99 77 50 39 43 46 42 21 19 31 25 53 43 48 47 40 38 41 38 49 27 9 6 6 7
8 7 8 11 18 26 27 36 72 100 100 100 100 98 72 43 49 47 43 30 24 20 40 45 82 79 92 93 91 83 78 74 49 20 18 11 5 4
9 11 18 22 27 36 56 66 99 78 72 84 94 68 51 47 56 43 31 24 23 24 60 86 94 91 97 94 95 97 97 82 83 51 19 10 4 4
10 19 27 29 32 64 100 89 48 42 51 52 49 47 52 52 42 35 24 33 25 49 75 96 90 93 96 92 97 98 100 99 93 99 43 12 5 3
12 21 29 35 51 99 94 71 56 53 48 41 42 47 46 34 31 41 62 77 76 73 83 96 92 96 88 88 97 98 98 96 95 89 79 54 37 38
19 25 30 40 85 71 79 66 64 61 51 55 50 40 32 33 49 82 97 99 94 88 91 97 95 93 98 87 96 97 96 96 99 100 89 78 71 62
32 34 37 52 58 58 64 58 58 62 62 53 42 36 60 86 90 95 97 98 98 98 97 100 96 97 94 92 95 96 98 98 99 98 98 79 73 58
40 45 51 58 60 63 60 60 65 67 57 52 66 90 92 93 94 99 94 99 98 100 98 99 98 99 98 89 92 97 96 96 98 98 100 100 99 79
43 52 60 63 66 62 58 62 63 61 87 100 98 95 95 98 98 99 97 98 97 97 97 97 97 98 97 91 93 98 97 96 96 96 96 98 100 99
57 60 64 67 59 55 58 58 54 86 97 97 97 94 97 97 98 98 98 97 97 96 97 97 97 97 96 95 97 98 99 97 96 96 96 97 98 98
65 73 71 64 59 60 56 47 88 97 98 97 98 98 97 98 98 98 97 98 97 97 97 96 97 96 97 96 97 98 97 96 96 96 96 97 97 96
75 74 68 62 61 60 59 94 96 98 98 98 97 98 98 98 97 97 98 97 98 97 97 97 96 97 96 96 96 96 96 95 96 96 96 97 96 96
74 70 64 62 62 67 96 97 97 98 97 97 97 97 96 95 96 97 97 97 96 96 96 96 96 97 97 96 96 96 97 96 96 95 95 96 96 96
71 66 62 63 73 98 98 98 98 97 96 96 96 97 97 97 97 96 96 95 94 94 95 96 96 96 96 96 96 96 96 97 96 96 95 96 96 96
70 59 62 78 98 98 98 98 97 95 97 100 100 100 100 100 97 96 96 96 96 92 78 73 78 95 95 97 96 96 96 96 96 96 96 97 96 95
63 58 75 97 98 98 97 86 93 99 100 100 80 62 55 68 80 99 100 99 98 98 97 96 87 71 63 53 83 96 97 96 96 96 96 96 96 96

GFSNE_700_rhum_018.txt.gz
RH
11 8 6 6 7 7 7 7 6 7 9 7 4 3 3 4 7 30 22 13 9 8 9 11 62 99 93 94 99 34 11 10 12 11 10 22 56 81
9 7 6 7 7 7 7 6 6 7 5 4 3 3 4 6 9 29 36 28 21 21 36 50 67 46 52 68 99 27 14 9 9 10 9 8 15 69
8 6 7 7 8 7 6 6 5 7 11 3 5 6 7 9 9 17 32 63 62 59 60 51 35 18 18 50 47 79 93 47 14 9 11 9 8 22
8 8 8 8 8 7 6 5 6 9 20 17 10 16 21 19 21 22 42 61 69 72 80 39 28 25 66 46 33 15 15 12 15 66 41 42 10 9
9 9 9 8 8 7 6 7 9 13 23 67 34 33 32 43 54 43 48 51 46 44 33 28 32 35 28 23 20 20 17 58 87 100 67 61 7 6
11 10 9 9 8 8 9 13 32 52 47 71 89 82 84 94 100 96 51 44 35 33 28 33 34 19 17 21 18 15 33 76 90 97 95 50 7 6
11 10 9 9 9 13 30 37 48 60 96 100 100 100 100 89 72 60 48 38 31 36 33 19 20 21 28 45 52 39 30 81 91 94 98 86 10 6
11 10 10 10 12 16 24 32 75 100 100 100 100 88 64 70 54 52 48 42 34 32 26 17 24 24 41 64 87 83 80 65 74 81 90 90 24 7
12 11 11 13 18 23 24 39 90 100 100 100 93 67 70 78 71 54 48 47 30 22 27 21 42 63 80 87 92 97 95 92 82 65 49 42 24 7
13 14 14 15 24 35 64 90 100 85 60 68 75 86 83 67 66 61 48 33 30 32 62 60 62 73 84 95 96 96 96 95 95 91 68 53 13 7
13 15 20 27 35 71 100 100 82 52 63 63 58 60 62 57 58 71 64 86 64 78 85 85 84 81 89 95 97 98 97 96 90 85 84 63 11 4
14 17 24 36 39 96 100 88 66 64 56 49 52 47 49 61 92 100 100 99 87 76 88 89 93 91 80 90 96 97 97 96 90 89 88 67 36 9
20 24 31 40 82 91 84 72 71 68 58 60 50 52 85 92 98 100 100 100 98 95 92 100 100 96 100 89 96 99 100 98 96 96 92 83 81 57
32 35 39 56 66 64 69 66 62 64 63 60 78 90 95 97 98 99 100 100 100 100 98 100 99 100 99 86 94 100 98 96 97 97 97 98 89 74
43 45 55 66 67 68 64 64 68 66 85 94 95 99 100 100 100 97 97 99 99 98 99 100 100 96 98 93 94 96 98 97 96 97 100 98 96 69
48 56 67 69 72 65 60 62 70 100 100 99 99 99 99 98 98 98 98 98 94 96 98 96 96 96 96 96 96 97 96 96 98 98 99 93 98 88
66 65 70 69 57 55 58 81 98 99 96 98 98 97 97 97 98 98 98 97 97 97 97 98 96 93 92 96 97 97 97 97 96 98 94 98 100 98
65 75 70 60 58 62 89 95 99 98 99 98 98 98 98 98 98 97 97 98 99 98 96 96 99 99 97 98 97 98 96 96 96 96 97 96 97 98
72 70 64 59 66 97 98 98 97 99 98 98 98 96 97 98 97 96 96 97 98 97 97 97 95 97 98 96 97 96 96 96 96 96 97 97 97 96
68 67 58 67 98 98 99 98 98 98 98 98 100 100 100 97 94 96 96 96 97 96 97 97 95 97 98 97 96 96 97 96 96 95 96 97 95 96
64 59 64 97 99 99 98 98 99 98 99 100 100 94 74 73 94 97 98 98 96 96 88 97 96 95 97 97 96 96 99 99 97 97 96 96 95 96
62 58 95 99 99 98 98 98 98 100 100 100 88 81 71 78 84 100 100 97 97 96 96 75 96 95 97 97 96 96 96 98 98 98 98 97 94 92
57 85 99 99 98 98 96 97 99 100 100 95 92 98 99 99 94 87 91 98 98 98 97 97 78 82 96 97 97 96 96 96 96 97 99 100 99 97

GFSNE_700_rhum_021.txt.gz
RH
17 16 14 11 9 8 8 8 8 11 15 15 11 8 6 5 5 8 10 11 12 12 12 12 66 100 100 100 100 100 100 100 100 98 100 100 79 24
17 14 12 11 11 11 10 10 9 8 10 10 8 7 6 6 8 16 23 26 20 20 25 27 99 99 100 100 100 100 88 100 100 100 97 96 89 39
15 13 15 16 17 14 12 9 9 8 8 9 7 6 6 7 8 16 33 50 42 39 56 96 44 35 81 45 27 41 88 84 100 100 98 98 98 98
17 20 23 21 17 12 10 9 9 9 13 11 7 8 12 13 18 19 27 37 81 85 88 53 50 48 29 26 34 66 50 50 76 100 95 100 81 91
25 26 21 16 14 11 10 10 10 11 14 24 21 26 37 66 58 57 44 48 51 55 48 45 41 34 34 34 31 26 37 55 57 46 63 64 80 94
25 20 16 13 11 10 11 12 14 18 22 34 86 93 95 68 72 62 43 44 42 41 42 43 43 36 25 20 19 18 18 17 17 14 16 69 91 94
20 16 13 12 11 12 14 15 20 25 44 99 100 100 84 59 57 54 51 46 36 47 42 24 24 21 20 23 27 30 42 52 76 91 73 71 80 88
18 15 13 11 12 13 16 20 35 83 100 100 100 89 70 58 53 66 61 54 30 40 41 20 42 32 49 62 69 79 83 75 81 60 88 87 87 76
16 13 11 11 14 15 15 25 45 93 100 100 99 69 62 64 72 73 58 61 64 63 92 68 82 75 77 76 79 85 89 88 89 90 82 59 51 53
12 10 11 12 16 25 36 57 96 99 86 75 74 63 81 81 70 84 95 95 90 88 97 83 85 76 80 77 81 95 97 96 96 96 96 95 90 49
10 12 16 21 28 42 90 100 89 64 66 59 57 63 61 79 100 100 97 100 87 87 90 90 82 78 78 75 85 98 100 100 99 97 93 91 79 61
10 13 21 35 44 90 100 83 66 65 55 53 52 61 98 100 100 100 100 98 96 87 90 96 90 91 69 66 87 100 98 95 93 94 95 81 76 64
16 20 28 45 73 76 72 70 67 63 58 63 88 98 98 97 98 99 100 100 99 94 97 100 92 91 91 80 94 94 91 98 96 97 96 93 82 60
30 34 44 64 69 67 67 63 62 67 86 97 96 96 95 96 97 98 99 99 100 100 99 99 96 97 91 86 92 96 96 95 96 96 96 97 81 42
42 45 60 65 67 62 60 67 86 99 95 91 94 96 99 98 99 96 98 98 98 98 98 98 98 96 94 91 95 95 92 97 97 98 97 98 96 45
45 50 62 67 67 62 69 95 99 98 96 97 97 97 97 97 97 96 96 95 96 97 98 98 98 95 94 93 96 97 96 97 95 97 100 96 99 82
52 56 61 60 53 69 95 98 99 98 97 98 97 96 97 97 97 97 96 96 97 96 96 99 97 96 94 98 96 96 97 96 97 97 96 95 99 97
55 61 63 54 71 93 93 94 99 98 98 99 100 98 92 96 97 97 98 97 95 97 96 98 97 97 97 97 95 96 96 96 96 96 96 96 96 98
58 61 57 67 94 96 96 98 96 99 100 100 100 100 94 82 92 97 96 96 97 98 98 98 96 96 97 96 96 93 96 96 96 97 97 96 95 95
56 59 62 94 95 96 97 99 98 100 100 100 100 98 90 86 91 98 96 96 96 96 97 97 96 96 97 97 94 97 98 97 96 96 96 96 94 98
55 59 95 95 97 98 100 100 100 100 100 100 100 100 100 99 92 94 100 100 97 97 95 96 95 95 97 97 95 100 100 99 97 96 96 96 96 96
54 90 97 98 98 98 99 98 98 96 98 100 100 100 99 99 97 98 98 94 96 98 95 96 95 95 98 96 96 97 99 99 99 98 98 97 96 95
73 96 98 97 94 98 96 97 99 98 100 100 100 99 98 96 100 100 100 99 99 78 100 95 91 96 96 96 97 96 96 96 98 97 96 100 98 96

GFSNE_700_rhum_024.txt.gz
RH
13 14 14 14 14 16 19 22 22 19 14 16 17 15 10 8 8 8 9 8 9 10 15 18 19 18 19 52 99 96 97 90 100 100 100 100 100 100
15 15 16 17 20 22 23 23 21 18 18 17 16 11 10 9 9 9 13 21 18 20 24 27 25 38 100 100 99 96 100 99 100 100 100 100 100 99
17 18 20 21 21 22 23 21 17 13 12 15 12 11 10 9 8 11 25 52 54 45 38 31 32 40 77 90 91 92 100 100 89 84 97 91 90 85
19 20 21 22 24 23 21 17 14 12 12 11 10 9 8 8 9 12 22 41 64 50 41 38 53 35 42 62 63 46 41 52 100 98 100 84 93 94
20 22 24 25 24 22 18 14 12 11 12 18 14 11 13 22 24 29 35 41 51 46 39 42 40 36 36 36 37 56 93 75 44 44 42 62 72 66
22 25 25 22 18 15 12 12 13 14 17 25 32 39 76 82 80 63 47 44 38 38 34 33 30 28 27 25 21 18 16 15 14 14 14 14 16 25
26 22 18 15 12 11 12 15 20 25 48 89 78 97 100 84 69 59 50 43 34 34 34 41 56 57 48 50 38 32 25 22 23 24 29 62 91 91
19 17 14 10 9 9 13 18 29 86 90 99 100 91 71 67 60 54 49 44 39 67 74 64 82 68 71 72 73 67 61 58 62 69 73 57 53 70
17 13 8 8 10 12 16 28 46 91 98 95 89 68 60 53 59 63 81 90 79 69 91 76 80 72 76 75 75 74 71 71 76 90 86 83 70 56
12 8 8 10 17 27 39 61 79 64 71 67 59 55 61 70 97 100 92 87 82 79 98 84 68 75 79 78 77 78 81 85 96 96 96 97 97 84
8 8 14 22 31 44 99 76 56 57 56 52 53 64 94 99 100 98 93 95 84 77 97 88 78 80 83 76 82 91 98 100 96 93 92 93 94 98
6 9 20 33 42 60 64 61 55 51 44 50 77 93 100 100 100 100 99 96 92 74 94 95 84 95 84 78 86 98 89 95 97 95 96 96 98 98
11 20 29 42 50 59 61 55 52 59 72 88 90 98 98 97 97 98 100 99 93 87 98 100 89 95 99 80 92 97 97 98 96 96 96 97 97 97
25 31 41 49 55 59 53 54 73 91 91 90 92 95 94 95 95 96 97 98 100 100 99 100 94 98 95 88 92 98 100 97 96 96 96 96 97 98
34 39 47 52 57 53 59 92 97 93 91 86 87 94 97 96 97 96 97 97 97 97 98 97 98 97 96 95 97 92 85 96 98 97 96 98 97 76
37 42 50 55 57 60 93 95 95 95 94 94 94 94 93 86 83 94 95 95 93 97 98 98 97 97 96 96 96 94 93 88 96 95 97 98 100 81
40 45 48 51 51 85 90 97 96 96 95 96 95 91 87 79 76 96 97 96 97 94 94 98 97 96 97 98 97 89 88 97 99 97 98 98 100 60
41 47 52 53 86 89 91 92 97 95 96 97 99 98 94 94 90 98 98 97 94 95 95 96 96 97 97 97 89 88 95 96 96 96 98 97 100 98
47 52 54 87 89 94 95 95 93 97 100 100 100 98 99 100 99 98 98 96 97 94 97 96 96 96 97 94 92 99 97 97 96 96 96 98 98 98
48 53 84 90 93 95 96 96 96 97 99 99 99 100 99 98 98 99 97 97 96 96 96 97 96 96 96 96 96 98 97 96 96 96 94 97 97 96
48 78 93 94 94 95 96 97 98 96 99 100 100 100 100 98 98 99 98 100 98 96 96 97 95 94 98 98 96 97 98 97 97 97 97 94 95 97
58 89 95 92 93 97 97 97 98 98 100 100 100 100 100 100 100 98 100 100 95 95 95 95 94 96 99 96 93 96 97 95 95 97 96 96 95 94
76 94 89 90 95 93 92 94 97 99 99 100 100 100 100 99 100 100 100 100 100 97 98 95 94 95 97 97 95 89 92 92 96 95 93 96 96 96

GFSNE_700_rhum_027.txt.gz
RH
15 16 15 15 14 14 15 17 18 10 5 8 12 15 18 17 15 13 11 10 10 9 9 9 9 9 9 9 9 11 13 26 100 91 96 89 91 92
17 16 15 13 12 14 16 19 21 21 13 12 14 15 14 13 11 11 11 13 15 19 22 31 26 26 23 20 20 22 33 96 100 100 97 98 97 93
17 15 13 12 13 16 18 18 17 17 16 14 13 11 9 8 9 14 23 30 43 49 45 38 35 34 35 62 97 88 100 62 100 100 100 100 97 97
15 13 14 17 18 18 17 17 16 13 10 8 6 5 7 10 12 18 29 59 97 86 51 41 39 39 41 39 35 36 34 39 42 43 50 88 90 91
16 17 19 20 19 18 18 15 10 7 8 13 10 11 17 30 28 34 51 73 80 60 47 48 44 38 35 28 25 22 22 45 84 100 99 98 95 89
21 22 22 20 20 18 12 8 8 9 13 20 23 37 65 62 65 68 57 54 46 43 43 50 62 64 70 68 57 42 30 24 19 16 16 18 19 18
23 24 22 21 15 10 8 8 13 20 28 41 54 95 77 70 64 56 49 42 52 70 78 76 78 74 70 73 74 71 69 67 58 39 27 21 18 18
24 23 21 14 8 7 11 17 29 50 75 99 80 71 61 58 52 52 76 82 64 70 89 66 84 75 69 69 70 69 69 68 69 68 61 54 50 45
25 20 13 7 8 12 18 26 35 54 72 84 60 54 53 64 91 88 86 82 71 77 99 74 82 69 76 76 79 83 78 67 62 61 64 67 68 69
18 10 6 8 16 25 30 37 43 53 56 48 49 68 93 97 98 94 85 82 77 84 99 82 80 78 81 81 89 96 92 77 68 59 59 64 73 94
10 6 12 20 27 34 42 42 45 43 42 60 84 90 93 94 99 96 92 92 78 75 97 88 79 79 77 84 96 100 91 77 65 71 83 87 94 96
6 11 20 29 34 39 45 47 40 45 69 74 81 86 99 100 100 100 96 94 92 74 96 92 83 91 72 78 99 93 81 90 93 94 95 94 95 97
10 18 24 31 35 42 47 45 55 81 81 82 86 92 93 93 94 94 100 100 92 86 98 100 88 94 98 81 98 95 95 96 98 97 97 97 98 96
18 23 28 32 38 44 44 62 85 85 86 90 87 85 83 81 79 76 84 98 99 99 97 100 95 98 94 93 93 94 97 97 96 96 98 98 99 96
26 29 33 36 42 45 66 89 92 92 92 88 86 88 88 88 84 67 88 96 97 97 98 96 94 97 98 97 95 97 85 93 96 96 95 96 96 97
29 32 36 42 49 68 90 95 94 95 93 92 90 91 94 94 93 84 84 89 88 96 99 96 95 97 97 97 96 96 96 95 94 95 98 97 97 99
32 34 37 43 64 85 90 95 96 93 93 95 93 92 91 92 94 93 93 91 97 93 93 99 96 96 96 96 96 95 94 98 96 96 99 97 100 82
32 36 43 61 85 86 87 89 95 94 95 94 97 96 91 93 92 95 99 97 94 96 93 96 97 97 97 96 90 91 99 98 96 96 98 97 71 46
36 43 55 85 87 89 92 93 94 97 97 97 97 95 92 97 96 94 92 93 97 97 97 99 97 96 95 96 96 98 97 97 97 96 97 99 86 33
41 48 80 88 87 91 95 96 97 98 98 98 95 99 96 94 95 94 93 91 88 98 100 100 98 90 91 94 95 95 95 96 96 98 96 96 98 100
41 70 91 87 89 96 98 100 100 100 99 98 100 99 99 97 96 97 94 96 94 97 98 99 92 80 93 100 97 96 96 96 96 95 97 98 99 100
53 91 90 90 97 98 99 99 98 99 97 100 100 100 100 99 98 96 95 91 95 92 97 99 97 91 92 92 92 94 92 96 96 96 95 95 97 98
78 91 88 97 99 99 95 97 97 97 97 98 100 100 100 100 99 96 95 96 94 94 95 97 98 96 93 89 91 96 96 94 96 95 96 97 96 94

GFSNE_700_rhum_030.txt.gz
RH
16 16 16 15 13 12 12 13 12 7 7 8 10 11 13 12 10 7 6 6 7 8 8 7 7 7 8 10 11 10 12 24 10 8 8 15 29 97
17 17 15 13 12 14 15 17 17 17 11 10 11 12 10 6 5 6 9 13 16 25 28 28 40 38 30 22 20 23 30 52 22 38 85 96 95 89
18 16 14 13 13 16 18 18 20 20 17 9 10 7 4 5 7 14 24 36 43 39 35 42 53 52 38 40 53 57 88 100 100 100 100 100 94 84
17 14 13 14 16 18 19 20 19 15 9 6 4 4 8 13 19 30 36 42 49 38 37 38 35 39 40 38 39 38 41 51 37 35 62 48 87 94
15 13 15 18 18 19 19 16 12 6 6 11 10 15 20 28 34 39 44 36 36 40 54 68 78 77 73 72 69 64 53 40 35 32 34 48 98 95
16 18 19 19 19 18 15 8 6 9 16 21 25 32 40 42 43 38 34 43 64 77 72 72 83 86 84 83 78 72 70 67 63 54 44 30 22 19
20 20 20 19 17 11 6 8 14 21 24 33 49 49 42 40 40 51 71 68 60 75 79 73 85 70 71 75 72 68 66 64 64 63 61 61 52 39
20 20 19 17 9 6 11 19 26 30 38 51 44 38 42 63 74 72 74 72 60 74 83 69 82 64 74 83 84 85 85 81 76 67 63 61 60 59
22 20 17 8 6 13 18 20 23 38 56 52 43 60 76 77 80 81 76 75 72 82 95 69 80 67 79 75 90 100 96 86 81 72 63 56 54 53
22 16 7 6 12 19 19 22 31 41 41 43 77 80 84 86 94 94 85 83 73 81 98 73 81 76 78 84 100 99 93 77 72 70 63 56 53 54
17 7 6 12 21 24 28 29 34 36 50 78 81 85 88 92 100 97 88 76 50 69 97 80 78 80 81 93 94 88 83 88 88 85 84 85 88 93
8 6 13 22 24 27 33 35 36 55 68 67 77 84 92 97 99 97 89 75 68 76 96 84 79 94 65 97 98 100 98 99 96 95 96 99 98 98
6 10 18 25 27 30 36 40 61 72 74 80 80 86 86 84 87 92 96 94 96 90 99 99 86 94 98 82 96 97 96 96 92 96 96 96 96 96
8 17 25 26 30 36 43 68 77 79 82 86 88 84 80 83 89 91 99 98 100 100 96 96 94 96 93 89 88 86 91 96 92 93 96 96 97 98
15 25 28 29 35 42 74 81 84 86 87 87 84 82 86 87 92 90 96 97 97 97 97 92 96 96 98 96 93 95 91 84 95 96 99 92 92 95
22 27 29 34 43 74 86 92 94 93 92 89 87 86 88 89 96 95 90 90 85 92 98 95 97 95 92 98 97 96 96 96 93 99 99 96 98 98
27 28 30 36 65 85 90 94 96 95 93 94 93 85 84 87 91 96 96 93 95 86 90 98 98 97 99 96 94 95 95 97 98 98 97 99 98 46
28 28 34 51 83 86 86 93 98 95 94 94 94 90 86 86 85 93 98 96 94 94 91 94 94 96 92 86 85 85 95 97 96 95 97 100 98 30
30 35 42 77 88 87 96 95 92 95 94 95 93 95 90 90 92 93 95 92 91 97 91 95 96 89 79 74 91 96 90 94 96 94 97 100 46 17
35 39 66 90 88 96 95 93 95 96 98 99 97 97 96 91 93 94 95 92 88 88 96 97 99 91 82 85 93 92 96 94 94 98 97 98 86 19
34 56 89 89 97 95 97 98 99 99 98 100 100 98 96 94 95 96 93 95 95 92 95 96 94 94 100 99 90 87 95 97 95 96 98 100 99 36
45 86 92 98 96 97 98 98 98 99 100 100 100 97 96 97 92 89 91 90 91 92 95 95 94 98 99 88 89 93 95 97 96 95 93 91 89 59
80 91 97 94 96 98 97 97 98 99 100 98 98 97 97 90 92 92 90 92 90 94 93 96 94 94 98 89 92 95 96 95 96 96 97 94 90 93

GFSNE_700_rhum_033.txt.gz
RH
17 17 17 17 14 10 8 8 8 8 10 10 9 8 8 7 6 4 4 7 10 14 14 13 14 12 12 13 15 71 97 96 92 56 55 72 100 98
17 18 18 14 11 10 10 10 12 11 9 9 7 7 6 4 5 7 12 18 23 25 27 27 27 27 25 26 25 25 26 32 47 96 100 97 90 93
19 18 14 12 11 11 12 14 14 14 10 5 6 4 5 7 12 20 28 30 23 21 23 29 38 45 46 46 45 37 29 31 59 100 100 100 97 97
19 15 12 11 12 14 15 15 14 12 8 5 4 7 9 14 23 25 22 22 31 50 61 64 61 59 65 66 64 61 60 60 64 48 79 98 98 97
15 12 11 12 14 16 16 14 11 6 5 9 10 10 14 24 24 25 32 50 62 63 69 67 71 75 74 73 72 70 69 69 67 63 63 56 37 75
14 13 14 16 18 17 14 11 6 6 14 16 18 19 27 29 32 50 56 62 65 67 63 66 73 73 72 76 71 69 70 67 63 61 62 62 58 46
13 16 18 20 18 15 10 6 8 16 18 20 31 34 32 41 61 62 66 64 59 68 60 57 68 64 67 73 75 78 80 81 80 73 63 59 57 58
16 20 21 18 15 10 5 10 20 21 24 33 33 34 58 73 70 70 68 62 38 56 55 41 72 67 79 80 84 84 79 74 74 76 76 74 70 62
21 20 18 16 10 5 8 15 18 24 38 39 38 70 75 80 75 68 60 66 56 62 68 48 73 69 81 93 98 87 80 72 73 77 78 78 74 71
21 19 16 9 5 7 13 17 19 30 39 45 75 80 85 88 90 84 78 73 60 56 88 62 72 75 88 99 98 94 93 96 94 91 92 93 90 82
19 15 7 5 7 16 20 20 24 34 50 75 83 87 89 90 96 92 88 84 74 49 86 68 72 73 96 100 97 94 94 95 92 93 96 96 94 94
15 6 6 9 17 23 22 26 32 51 68 69 76 81 87 93 99 100 100 90 90 53 87 69 74 84 56 94 96 97 95 98 97 99 98 96 98 98
5 6 9 15 23 24 27 35 55 71 72 79 78 83 87 86 92 97 100 100 96 89 97 88 78 91 93 73 75 87 93 94 91 95 99 99 98 100
6 8 13 21 24 26 35 61 76 77 80 82 86 85 81 81 90 92 98 100 100 99 95 94 86 94 95 87 77 75 86 96 93 94 96 96 96 99
7 11 22 25 26 32 60 82 84 84 86 86 85 85 86 81 86 86 90 94 96 97 98 96 94 92 100 95 90 88 92 86 95 96 94 90 92 93
9 18 26 27 33 53 84 91 92 93 91 88 84 86 83 81 87 88 84 84 83 84 98 96 96 95 95 98 95 88 96 95 92 96 98 98 100 92
18 24 26 28 43 82 89 94 97 96 93 91 91 87 86 86 90 92 91 88 88 81 80 97 98 97 97 95 84 86 90 94 97 96 98 83 31 13
22 24 27 36 78 85 88 93 99 96 95 96 95 95 91 88 88 92 95 92 86 89 88 91 81 82 88 85 83 74 89 95 97 96 100 61 25 15
22 28 35 72 85 90 92 95 94 97 97 97 96 97 93 91 96 93 93 92 88 93 94 91 90 91 83 75 78 96 86 90 96 96 100 68 31 29
30 36 70 86 92 94 95 93 93 96 99 98 97 99 98 95 92 90 96 95 90 87 94 98 97 98 87 86 87 96 95 90 95 98 100 100 53 34
36 72 87 92 94 94 94 96 97 98 98 97 99 98 98 95 91 94 96 99 95 94 91 92 95 93 91 97 89 94 97 97 94 96 99 99 75 31
74 87 93 93 93 93 94 96 99 100 98 99 100 100 99 99 97 97 99 96 94 91 94 93 94 94 95 93 88 93 92 97 95 95 97 95 89 88
84 91 90 92 93 91 90 97 100 100 100 100 100 100 100 100 100 100 100 100 94 89 91 96 95 94 93 91 88 90 94 93 90 95 97 93 94 99

GFSNE_700_rhum_036.txt.gz
RH
38 22 19 19 18 16 11 8 8 9 11 11 10 8 7 6 5 4 4 6 6 7 10 14 16 16 13 13 14 15 16 16 23 48 85 100 99 85
26 19 19 18 16 11 8 8 8 10 11 10 8 7 6 4 5 7 9 10 11 18 18 19 25 32 37 40 40 38 34 29 24 23 41 68 65 69
20 19 19 16 11 9 9 10 11 11 8 6 7 6 4 6 9 13 19 20 17 21 38 50 51 50 53 52 51 52 52 51 50 48 49 82 98 97
19 19 16 11 9 10 11 12 12 11 10 7 5 3 5 8 14 23 22 22 40 46 53 58 55 55 57 59 60 62 59 55 54 56 56 57 70 100
20 16 12 10 10 12 13 12 12 11 8 4 3 5 8 12 22 23 29 50 54 56 58 65 60 59 59 61 66 64 60 60 57 55 56 58 58 58
15 12 11 12 14 14 14 14 11 6 4 6 10 10 11 23 28 40 50 56 57 60 47 50 47 40 42 61 66 68 72 71 68 67 66 64 65 63
13 11 13 15 14 15 14 9 5 4 7 15 17 17 22 28 50 58 58 59 51 58 52 41 41 39 62 66 69 74 71 71 73 74 72 69 67 69
11 15 15 15 15 13 6 4 6 11 17 19 20 28 32 60 66 65 65 56 41 60 75 36 52 58 71 73 82 73 73 72 79 84 85 83 79 76
16 16 16 15 9 4 4 6 10 18 23 24 28 37 67 74 76 70 64 67 61 66 87 39 63 62 74 92 85 86 88 92 94 92 90 88 89 94
16 16 12 5 4 4 5 7 16 22 24 31 46 73 81 84 87 81 76 68 55 74 98 53 64 66 72 96 98 100 100 99 96 95 93 91 93 94
14 7 4 4 5 6 10 17 21 22 31 54 76 84 86 87 91 84 80 77 71 70 87 64 61 65 72 98 98 90 92 94 96 95 95 98 100 97
6 5 6 6 6 12 23 24 21 29 55 71 77 83 87 85 91 97 97 88 84 68 88 66 64 79 53 78 93 87 76 84 88 95 96 98 100 99
6 7 6 6 10 21 25 25 31 61 73 77 80 84 84 88 91 95 98 100 91 82 92 87 68 79 88 64 62 78 74 69 84 93 97 97 99 100
7 5 7 12 18 23 25 34 67 78 78 80 83 86 84 87 88 91 96 97 98 95 86 92 82 86 86 78 70 67 66 76 95 93 95 98 99 97
6 8 16 18 21 24 33 74 81 81 86 88 86 86 91 89 91 91 90 92 90 99 97 93 94 91 96 91 77 66 73 79 99 95 97 100 98 97
10 15 18 19 23 34 76 86 89 94 92 88 86 90 90 90 92 94 88 88 81 80 97 98 94 95 92 95 88 78 82 95 94 94 94 99 93 38
16 18 19 22 35 75 84 95 97 93 93 96 94 91 89 90 93 97 94 86 85 83 76 84 95 98 98 98 89 82 83 91 98 98 93 97 73 34
17 20 24 40 78 81 88 90 96 94 95 94 95 94 91 94 94 93 93 91 86 86 84 84 82 86 89 91 92 78 91 89 96 99 97 97 95 59
20 24 47 79 83 88 88 90 92 97 96 98 99 100 95 94 97 94 94 93 88 90 92 90 88 89 80 73 73 96 83 85 90 97 98 100 98 100
28 55 78 86 88 88 91 93 95 96 96 98 99 100 100 100 99 98 98 97 92 86 86 95 96 96 94 88 72 78 100 87 94 95 97 100 100 100
60 79 86 88 88 91 92 95 98 99 99 99 100 100 100 98 97 100 97 99 96 92 87 93 94 96 94 92 83 80 95 98 96 94 97 98 97 98
78 85 87 90 90 90 92 96 98 99 99 98 98 98 98 99 98 98 99 98 94 91 88 93 92 94 95 91 85 88 86 94 96 96 96 96 96 96
83 86 86 86 87 90 92 95 98 100 98 98 98 98 98 98 99 99 99 100 95 89 87 89 94 95 95 90 85 90 91 93 91 94 96 96 98 98

GFSNE_700_rhum_039.txt.gz
RH
73 73 65 39 21 20 19 15 11 10 11 12 12 10 7 6 6 4 3 3 3 5 5 7 11 12 11 12 14 18 25 32 34 34 30 26 19 64
76 72 48 22 20 19 15 11 9 10 12 12 9 8 7 6 4 3 3 6 7 10 14 15 26 35 40 42 42 42 41 40 39 43 45 49 88 96
77 60 22 20 19 14 11 9 10 12 10 7 8 7 4 3 3 4 9 10 12 15 26 44 47 53 53 52 49 46 44 45 44 46 47 47 52 87
66 22 20 19 13 10 10 11 12 9 8 6 5 3 3 4 6 11 14 16 18 39 46 53 54 52 46 42 40 40 43 45 49 50 49 48 48 48
22 21 19 13 10 11 12 11 9 8 7 4 3 3 5 9 12 15 21 22 47 52 54 54 46 46 43 43 40 37 39 49 57 56 58 62 64 63
21 18 12 11 12 12 10 10 8 4 4 4 4 5 9 13 18 27 28 56 54 58 53 55 54 53 49 40 49 60 61 57 60 69 68 68 66 66
16 12 12 13 11 10 8 5 4 4 4 5 7 12 13 16 30 38 60 60 58 60 59 56 55 58 48 62 66 63 61 69 73 81 81 82 81 79
11 12 12 11 9 6 4 5 5 6 6 10 15 18 18 30 52 66 68 66 50 60 68 47 69 52 55 66 70 65 76 78 83 85 87 86 86 85
13 12 10 9 5 5 6 6 6 7 14 22 20 23 34 66 75 74 71 68 60 66 75 61 66 48 57 68 82 87 90 83 94 97 95 93 90 88
12 10 8 5 6 6 5 5 6 10 20 22 27 44 75 78 86 86 79 70 60 63 80 80 64 57 53 67 96 100 95 97 97 84 80 83 92 95
10 7 6 6 7 5 5 8 10 17 21 28 57 79 86 90 94 93 78 76 64 50 74 85 64 56 50 64 100 100 100 90 85 82 82 91 97 94
7 6 7 7 6 7 14 14 17 19 27 63 76 82 88 89 90 90 90 79 69 50 81 75 67 77 43 51 80 90 89 80 74 70 82 96 95 94
6 8 8 7 10 14 18 20 22 33 70 77 80 84 84 84 88 92 95 96 88 77 95 97 71 73 82 57 55 68 71 65 62 68 93 98 97 96
8 8 9 12 14 17 19 24 45 78 79 81 81 81 83 87 90 92 94 98 98 95 91 97 82 80 75 68 63 60 71 69 68 84 99 89 97 97
9 11 12 13 15 19 28 61 79 81 83 83 84 87 90 89 91 94 91 94 88 96 98 98 91 84 88 84 77 69 72 60 76 94 90 93 96 95
11 12 12 15 21 42 73 81 87 89 88 88 89 90 90 92 95 98 90 91 84 84 93 97 92 93 88 90 94 84 87 86 84 93 98 92 94 92
10 11 15 27 59 74 78 85 89 90 91 94 94 92 93 93 96 99 98 92 90 86 78 84 89 93 95 98 94 95 88 74 91 93 95 93 91 93
11 15 32 65 75 80 82 85 92 93 94 93 94 94 90 90 92 94 98 97 89 85 83 85 80 76 79 92 97 94 85 80 85 88 97 94 82 93
15 33 66 74 79 80 81 85 88 94 96 96 93 94 93 90 95 94 91 91 86 85 86 88 86 91 83 71 76 99 84 81 81 79 96 98 86 91
34 65 74 78 80 82 86 89 94 98 97 97 98 99 100 96 91 91 91 91 86 82 78 88 92 94 97 91 76 72 97 90 86 81 83 97 99 95
65 72 75 77 79 83 90 95 98 98 98 98 99 99 98 96 93 94 93 93 90 90 85 87 93 97 100 94 85 82 94 98 98 90 82 82 82 87
71 74 76 75 76 80 86 95 100 100 99 98 97 97 96 97 97 98 97 92 89 91 86 88 95 96 95 96 90 89 88 92 96 92 94 99 90 78
74 74 70 67 69 73 83 95 98 98 100 99 96 97 97 96 98 100 96 92 90 89 91 90 96 99 100 98 96 95 96 93 88 84 95 99 97 95

GFSNE_700_rhum_042.txt.gz
RH
66 67 68 68 71 65 30 22 20 16 13 13 14 13 10 8 6 5 4 4 3 3 3 4 5 6 8 9 13 25 33 35 39 40 40 41 41 47
69 70 71 74 70 35 22 19 14 12 13 14 11 8 7 5 4 4 4 3 4 5 6 8 12 18 27 38 43 42 42 44 41 42 42 43 49 74
72 74 77 72 36 22 19 13 12 12 12 10 8 6 5 4 4 4 4 5 7 9 12 19 41 45 50 53 47 41 33 30 32 33 36 40 42 46
77 80 76 33 22 18 12 12 12 10 8 7 5 4 4 4 4 5 6 10 11 13 28 48 53 56 55 45 42 41 34 31 30 28 29 34 44 49
84 78 26 22 16 12 12 12 9 8 6 5 5 5 5 5 5 8 13 13 17 37 56 57 60 57 54 53 56 51 46 35 30 40 52 54 57 59
72 23 21 14 12 12 11 9 7 5 5 5 5 4 5 6 12 15 12 23 38 55 59 60 59 58 54 61 62 57 49 45 51 56 63 67 66 68
23 19 13 13 12 10 8 6 5 5 5 5 4 5 7 13 18 23 39 52 54 62 59 47 62 51 57 66 65 61 62 58 61 71 76 78 77 76
16 13 13 12 10 8 6 6 6 6 5 5 8 9 14 18 39 63 64 62 56 60 58 46 68 48 60 63 66 66 62 61 70 80 83 82 80 78
13 13 12 9 7 6 6 6 6 6 8 13 14 18 20 52 73 77 76 73 64 61 71 55 59 46 56 55 71 74 71 78 89 86 89 91 91 80
13 11 9 7 6 6 6 6 7 9 14 16 19 27 63 79 83 87 81 77 62 65 74 65 54 47 52 53 68 78 87 93 95 94 95 88 77 70
10 8 7 6 7 7 8 9 10 13 16 21 42 75 81 85 91 91 83 74 64 62 69 80 60 49 43 44 61 80 100 100 98 95 90 81 73 69
8 7 7 7 8 9 11 11 11 14 23 59 74 78 83 87 89 93 93 87 79 61 81 74 62 69 39 39 43 68 93 98 95 91 80 71 71 79
7 6 6 7 9 10 11 14 20 46 69 72 76 79 80 85 88 95 95 94 87 77 98 94 74 76 76 50 40 56 82 84 80 74 72 77 85 92
6 6 8 9 9 11 19 42 68 71 73 75 78 80 80 82 83 88 89 95 97 97 95 98 86 86 78 66 52 52 75 81 71 66 66 69 88 90
7 8 9 9 12 31 61 70 73 74 74 76 80 80 81 83 85 89 90 94 88 98 98 100 97 90 91 82 74 66 72 69 73 70 68 77 88 87
8 8 9 14 42 61 68 74 76 77 80 81 82 85 86 86 88 95 89 89 84 83 94 99 97 95 89 91 90 84 88 71 62 65 70 81 82 97
8 9 16 48 62 66 70 73 79 82 85 89 90 88 88 89 90 95 96 88 82 80 77 87 94 91 89 96 93 93 85 71 70 65 75 77 82 99
8 13 49 61 66 64 66 72 82 87 91 92 93 94 92 90 89 89 91 92 87 84 83 87 84 73 70 78 97 92 87 71 65 72 81 83 80 96
12 45 62 64 61 63 69 76 85 92 92 94 94 94 92 89 91 94 93 92 88 88 88 89 84 86 78 66 82 99 91 73 75 76 80 81 83 91
38 60 64 59 59 65 71 78 90 93 94 94 95 95 97 96 94 93 93 94 92 88 85 96 97 94 94 88 73 75 100 89 85 82 78 76 84 93
63 67 60 58 62 64 72 82 89 88 90 94 98 97 97 96 94 95 96 98 99 96 90 88 93 98 100 97 86 80 95 99 100 96 90 81 80 80
69 64 59 61 61 66 74 77 78 86 93 98 98 98 98 98 96 97 99 96 95 93 86 84 96 97 98 93 92 84 79 82 93 100 98 97 92 79
70 64 63 60 64 67 67 71 80 88 96 99 100 97 98 97 99 100 100 98 95 85 91 92 96 98 98 97 98 94 92 90 86 86 98 96 92 95

GFSNE_700_rhum_045.txt.gz
RH
65 66 69 69 68 69 69 71 65 40 23 19 14 15 14 12 9 7 6 5 4 4 4 3 3 4 5 6 7 8 14 22 30 38 38 39 40 40
68 70 71 72 72 71 74 64 26 21 18 14 15 13 10 8 6 5 5 4 3 3 3 4 5 7 8 10 12 30 43 46 46 44 42 43 43 47
71 74 76 76 78 79 66 26 20 15 15 15 12 9 6 6 5 4 4 3 3 4 5 8 9 11 17 35 45 50 47 45 40 35 31 29 29 32
77 79 83 85 85 67 24 19 14 14 13 11 8 6 5 5 4 4 4 4 5 8 10 14 27 42 52 52 49 44 42 41 41 40 38 34 30 28
90 91 96 89 54 22 17 14 14 12 9 7 6 5 4 4 4 4 5 6 9 13 29 47 53 59 57 50 48 50 48 42 38 40 40 35 37 49
96 96 91 38 22 15 15 13 11 8 6 6 5 4 4 4 6 7 6 10 20 46 51 59 58 61 55 56 56 53 57 56 50 44 39 48 53 52
97 68 24 18 15 14 12 9 7 6 5 5 4 5 6 8 9 10 14 38 49 54 52 58 57 54 50 57 56 62 68 62 56 45 47 56 60 67
28 22 15 15 13 11 8 6 6 6 6 6 7 8 10 11 15 33 59 57 50 56 52 50 54 52 55 51 52 66 69 61 57 52 54 63 77 80
17 15 14 12 9 7 6 6 5 6 7 10 10 11 14 27 60 64 68 68 65 62 61 50 67 57 56 51 62 70 72 69 59 59 61 74 82 82
15 14 11 8 7 6 5 5 5 6 9 9 12 21 49 68 71 74 76 76 68 69 77 70 69 60 53 54 67 69 72 79 70 61 62 77 84 82
12 8 7 6 6 5 5 5 6 7 11 28 53 67 73 78 81 76 82 79 69 67 76 81 66 59 53 53 67 70 73 77 81 75 80 82 81 82
8 7 6 5 4 5 6 6 6 26 48 56 64 71 76 77 83 87 88 83 81 69 88 76 68 75 46 47 55 63 66 70 80 84 84 86 85 84
5 4 4 5 6 6 6 14 41 47 51 57 63 69 73 77 80 87 92 91 86 81 98 94 76 80 79 57 53 60 64 69 76 83 90 91 89 83
4 5 6 6 6 7 24 49 52 53 54 56 63 71 72 78 82 87 89 92 93 92 96 99 88 86 81 73 64 56 67 74 75 80 84 83 80 74
6 7 7 6 8 33 50 52 52 49 52 61 70 76 80 82 85 87 90 90 88 97 98 100 98 93 89 81 74 62 66 65 78 71 71 70 64 65
8 8 7 8 39 49 52 52 52 56 64 70 76 82 85 88 89 90 88 90 82 81 92 98 96 94 86 82 77 72 82 77 74 73 68 59 60 64
8 7 9 38 53 54 52 56 62 69 74 81 85 87 88 88 90 94 94 91 85 82 78 89 93 92 90 92 85 91 92 90 79 69 65 58 60 70
8 8 32 52 50 49 54 60 66 72 78 84 89 92 91 90 87 91 92 92 88 86 85 90 88 80 74 76 98 87 82 75 74 74 77 72 63 73
9 23 52 52 50 52 54 60 66 73 79 86 92 95 93 90 93 92 92 90 86 87 86 92 87 88 81 67 80 98 96 97 93 84 80 78 75 75
16 56 59 53 49 50 57 61 66 74 81 90 94 94 96 95 92 93 91 89 87 85 81 92 98 100 95 84 73 79 100 94 86 81 78 78 80 79
60 65 60 51 50 56 60 64 69 74 79 87 98 98 98 98 95 94 92 96 96 94 88 96 100 99 99 95 87 86 90 98 99 99 90 81 77 75
70 67 61 53 57 58 61 66 74 80 83 85 96 100 98 98 97 96 98 96 96 98 97 97 94 94 98 97 95 94 84 84 94 98 99 94 98 86
72 69 59 58 58 60 64 72 76 83 86 88 95 97 98 94 97 98 98 100 99 95 95 94 97 98 99 99 99 96 91 92 88 83 98 98 97 98

GFSNE_700_rhum_048.txt.gz
RH
100 99 84 67 68 67 68 69 68 67 66 65 46 21 17 16 16 14 10 8 6 5 4 3 3 2 2 2 2 3 3 4 5 7 9 11 20 25
100 100 76 72 73 75 75 72 76 77 71 48 21 17 16 15 12 8 6 5 4 3 3 3 3 3 3 3 5 6 8 10 15 21 30 36 39 44
100 99 80 78 75 81 82 83 83 75 38 20 16 16 13 9 6 6 4 4 3 3 3 4 4 4 6 7 9 15 27 37 40 44 43 40 39 38
100 99 92 94 96 90 94 90 72 23 17 17 15 12 8 6 5 4 3 4 4 5 5 6 7 8 13 25 35 44 47 45 43 37 35 38 37 36
97 96 97 97 98 98 90 36 20 16 15 13 9 6 6 4 4 4 4 4 6 7 8 15 32 41 48 48 49 52 48 42 38 40 37 33 37 40
98 98 96 97 94 44 22 17 16 14 10 7 6 5 4 4 4 5 4 6 6 18 43 47 55 57 58 56 54 50 45 45 49 44 36 39 45 40
97 96 95 64 23 17 16 15 12 8 6 5 4 4 4 4 5 5 7 17 36 55 52 47 56 56 61 60 56 51 53 54 51 45 40 46 46 45
98 71 24 19 16 15 13 9 7 6 4 4 4 5 5 5 13 29 42 44 33 50 50 43 54 51 54 56 55 56 58 56 55 54 49 49 50 50
26 21 16 16 14 10 7 6 4 4 5 6 5 6 17 34 45 44 45 44 42 53 56 42 66 56 60 58 63 67 67 65 66 62 55 50 49 48
17 16 15 11 7 6 4 4 4 5 6 5 13 35 45 47 48 47 49 48 46 57 72 50 64 56 60 63 71 76 75 75 76 69 58 49 48 52
15 12 8 6 4 4 4 5 6 5 7 32 47 50 53 57 62 60 63 58 53 56 76 72 68 61 57 56 70 75 79 80 76 70 66 54 46 51
8 7 5 4 4 5 6 6 5 10 38 44 49 54 59 67 75 76 76 72 72 55 76 74 73 77 46 46 50 61 69 76 73 76 73 62 55 59
5 4 4 4 5 6 6 5 16 36 36 38 48 60 69 75 80 87 92 89 81 76 90 94 79 82 78 54 50 61 64 67 70 70 79 78 69 70
4 4 4 5 6 6 6 25 40 37 41 52 59 66 70 78 83 87 90 92 94 91 93 100 95 94 84 68 61 58 64 67 68 74 79 81 82 83
4 5 7 7 7 7 31 42 40 45 52 55 59 66 70 74 80 84 92 96 91 96 98 100 99 96 90 78 67 61 69 64 80 76 77 75 73 77
7 9 8 7 7 33 43 42 47 51 51 56 62 69 75 81 82 85 81 85 82 84 96 98 95 92 84 80 75 69 84 82 83 86 79 69 70 69
10 9 8 8 34 50 48 51 52 53 58 65 70 74 78 81 83 89 92 88 85 79 75 87 93 90 86 88 82 84 93 94 91 79 76 68 68 71
11 10 10 38 52 47 48 51 51 56 63 68 72 76 80 83 83 86 89 88 84 83 81 85 81 78 81 84 98 92 85 77 74 75 80 75 64 75
12 11 42 55 50 47 49 50 55 64 70 73 74 82 84 87 90 91 91 90 85 87 88 94 89 91 84 76 81 99 96 98 100 87 82 81 74 70
13 48 60 53 50 52 55 58 65 72 78 81 81 84 92 92 91 94 96 93 90 88 89 99 99 98 94 89 79 90 98 91 83 78 79 78 76 76
54 61 57 54 54 57 59 66 70 77 79 83 90 92 96 98 94 97 95 98 97 96 94 96 98 98 97 96 90 85 87 98 97 95 89 80 78 78
63 60 57 55 58 60 65 70 76 79 82 87 93 95 95 98 93 90 95 96 97 96 93 95 95 94 97 96 92 89 84 87 97 98 98 97 97 90
60 58 55 58 57 61 68 71 74 77 80 85 90 93 94 93 95 95 92 91 96 92 95 94 96 97 97 96 95 93 92 93 92 93 97 97 96 96

GFSNE_700_rhum_051.txt.gz
RH
100 98 100 96 98 100 93 74 72 72 70 73 78 76 73 53 23 18 18 17 13 9 6 6 5 4 3 3 2 2 2 2 2 3 3 3 4 5
100 100 100 97 98 99 95 80 77 78 77 77 81 76 45 20 18 17 14 10 7 6 5 4 3 2 2 2 3 3 3 4 4 4 6 9 13 21
98 100 99 99 98 100 98 91 95 95 87 83 72 27 18 18 14 10 6 6 4 3 3 3 3 3 3 4 4 5 6 8 10 17 25 29 37 37
100 98 100 99 100 100 98 99 97 95 88 51 20 18 16 11 7 6 4 3 3 3 3 4 4 5 5 8 15 24 29 32 37 39 41 41 40 35
100 99 99 99 98 98 97 97 97 51 20 18 17 13 8 6 4 3 3 3 3 4 7 13 22 34 39 40 42 42 43 43 45 46 46 43 36 33
99 99 99 98 97 96 96 53 21 17 16 13 8 6 4 3 3 3 3 4 13 27 34 33 33 39 43 49 49 48 49 50 51 50 46 41 35 33
99 100 99 98 98 54 21 17 16 13 8 6 4 3 3 4 4 4 11 21 18 26 24 23 29 35 45 49 51 53 56 55 55 52 50 48 42 37
98 98 97 70 21 17 16 14 9 6 4 4 4 4 5 4 9 26 19 17 15 29 33 31 41 42 47 44 47 51 57 61 63 63 60 52 45 40
88 42 21 18 17 14 10 6 5 4 4 5 5 5 5 32 28 20 21 26 30 40 51 34 50 47 55 57 63 67 71 73 67 62 58 57 55 48
24 18 17 15 10 7 6 4 4 5 6 5 5 15 32 27 26 30 36 39 40 54 70 51 60 54 58 59 72 76 82 80 78 75 73 67 61 56
18 15 11 7 6 5 4 4 5 6 6 8 32 32 31 37 46 47 55 54 49 56 70 82 66 63 60 56 67 73 73 75 80 80 77 73 67 57
11 8 7 6 5 5 5 5 6 6 11 37 37 42 48 55 65 69 70 67 74 63 77 82 67 79 53 48 52 61 63 70 73 73 76 74 68 57
7 6 6 5 5 6 7 7 6 10 33 32 42 49 57 63 68 78 87 89 87 84 98 98 73 77 77 58 51 61 66 66 70 69 72 69 64 62
6 6 6 6 7 8 8 6 12 34 35 41 45 52 54 60 68 77 82 86 87 90 88 97 88 87 80 67 62 61 64 70 71 69 72 73 75 76
6 6 7 9 9 9 7 19 40 40 42 45 52 57 60 61 73 80 84 86 84 96 97 100 99 92 88 80 72 62 66 68 79 75 76 76 77 83
8 10 11 11 10 9 37 46 44 44 47 54 59 62 64 69 78 81 80 82 76 78 92 99 95 88 80 79 75 72 83 74 83 89 79 71 74 76
10 13 13 11 11 48 53 48 46 51 58 64 68 69 69 72 79 85 86 82 79 74 71 86 93 90 88 93 87 84 87 85 82 82 83 80 81 86
10 11 10 21 58 57 52 52 53 59 65 71 74 76 74 78 77 81 86 89 84 84 88 93 91 84 81 80 96 92 88 86 87 84 86 78 66 83
9 11 43 54 52 48 50 53 59 64 70 75 78 83 85 82 84 88 86 86 83 85 91 96 89 92 83 72 89 98 93 86 92 85 89 91 81 82
35 50 49 47 46 50 53 58 63 70 75 79 83 86 88 92 92 92 91 86 85 84 85 99 99 96 92 89 81 91 98 93 87 81 82 79 81 84
45 47 47 45 48 51 56 62 65 71 74 76 81 89 92 93 93 96 92 92 87 90 89 94 97 98 99 97 88 89 96 98 98 94 84 80 85 83
47 47 45 47 49 54 60 64 70 72 76 80 85 90 89 94 95 92 93 89 80 82 88 96 97 94 98 96 96 94 94 96 97 97 98 100 98 82
47 45 48 50 53 57 62 67 69 69 72 76 77 73 72 78 92 97 89 82 84 83 91 92 93 96 98 97 97 97 94 95 92 94 97 97 96 90

GFSNE_700_rhum_054.txt.gz
RH
98 100 98 99 98 100 100 99 100 99 100 93 93 92 94 93 93 83 61 27 19 19 15 10 7 6 4 3 3 2 2 2 2 2 2 2 2 3
99 97 99 100 99 96 99 100 100 100 98 97 98 98 99 93 77 38 20 19 15 9 6 5 3 3 2 2 2 2 2 2 3 3 4 5 5 6
100 100 99 100 98 100 96 99 99 99 98 96 99 99 90 47 20 18 13 8 6 4 3 3 2 2 2 3 5 8 11 14 16 18 22 24 26 28
100 96 100 100 100 100 100 98 99 97 97 98 91 54 20 18 14 8 6 4 3 3 3 3 3 8 15 18 17 16 16 17 18 23 27 31 36 40
99 100 100 99 99 98 100 98 100 98 97 82 23 18 15 8 5 4 3 3 3 3 6 15 21 20 18 17 17 17 18 17 16 18 22 29 38 44
100 99 100 99 99 98 98 96 96 86 35 17 15 9 6 4 4 3 3 3 4 18 21 18 18 23 28 30 29 29 28 26 25 25 28 34 38 40
98 98 99 97 98 98 96 51 19 18 15 10 6 4 4 4 4 4 3 9 16 18 21 25 31 34 44 45 45 47 46 45 42 40 41 45 48 48
97 98 98 97 97 73 23 18 16 11 7 5 4 4 4 4 4 6 16 17 19 28 27 27 41 40 49 48 54 56 57 57 57 54 53 53 55 56
96 96 86 47 21 18 15 11 8 7 5 4 4 5 5 5 15 19 23 28 29 37 38 28 48 47 54 57 64 70 72 70 66 62 59 60 61 60
41 20 18 17 14 10 8 7 6 6 5 5 6 6 11 26 26 28 32 33 36 44 59 40 57 49 54 56 64 77 79 76 75 73 73 72 63 60
18 14 11 8 8 8 7 6 6 5 6 7 6 22 31 35 39 38 44 42 40 47 61 65 54 51 49 47 57 65 78 91 84 77 76 70 68 65
9 8 8 7 7 6 6 6 6 7 8 9 38 38 43 46 48 50 49 50 55 49 68 65 62 63 38 40 47 59 67 73 74 75 72 68 66 61
6 6 6 6 6 7 8 9 9 8 15 38 42 46 48 53 57 59 60 63 64 67 78 74 60 66 62 46 43 58 62 67 68 66 71 72 68 65
4 5 5 6 7 8 10 10 8 18 38 41 44 50 57 62 64 62 66 66 70 84 80 81 67 71 63 56 50 53 69 74 72 72 73 75 77 77
3 3 4 6 8 10 9 8 29 37 40 44 50 60 64 65 66 64 71 70 74 89 94 91 78 73 80 81 78 74 77 70 88 82 75 74 79 84
2 3 5 6 8 8 25 41 40 39 42 51 60 62 66 71 73 71 68 70 72 77 91 100 98 96 94 93 85 78 84 79 86 90 82 78 80 85
3 4 5 6 21 36 37 37 39 45 52 58 62 64 68 70 77 80 78 73 72 72 77 90 96 97 99 98 96 99 97 89 88 82 82 81 90 96
4 5 17 30 33 35 37 42 44 52 58 61 64 65 70 75 73 79 80 82 79 78 81 89 92 92 88 89 95 87 79 76 74 79 84 76 77 97
13 27 29 31 33 34 39 45 52 58 60 64 67 70 76 81 81 84 84 82 76 80 83 88 89 95 90 77 88 98 88 86 79 78 90 96 94 97
26 29 33 32 35 39 44 50 55 59 63 66 69 77 76 70 72 80 94 93 78 75 72 86 97 97 97 93 86 95 98 90 82 81 84 94 96 95
33 32 31 34 39 45 49 54 56 59 61 65 70 72 72 69 67 74 90 93 82 79 74 80 97 99 98 94 86 86 97 98 98 91 82 77 72 68
36 35 36 39 43 48 53 57 62 64 64 67 71 74 73 70 63 69 86 53 51 68 72 78 95 96 98 94 91 92 88 92 97 96 98 95 86 71
42 40 42 44 48 52 57 60 64 64 63 66 66 58 56 57 65 79 52 38 39 51 80 77 87 98 97 96 98 95 94 93 94 93 97 94 92 93

GFSNE_700_rhum_057.txt.gz
RH
94 99 99 98 100 91 100 95 87 99 100 98 99 100 95 97 98 99 97 96 90 79 33 20 18 14 8 6 4 4 3 2 2 2 2 2 2 2
90 98 97 98 100 100 100 92 98 100 100 99 100 99 99 98 97 96 97 84 39 20 17 12 8 6 4 3 3 3 2 2 2 5 8 10 11 11
100 94 95 99 99 98 97 99 100 100 100 100 99 98 99 98 98 91 62 24 18 10 6 4 4 3 3 2 2 3 6 9 11 10 10 10 12 14
92 100 100 99 100 100 99 99 100 98 100 100 98 97 97 97 91 65 18 11 6 4 3 3 3 2 4 9 11 10 10 10 11 11 12 13 13 15
100 100 100 95 97 100 100 99 98 98 97 98 97 92 52 18 16 10 6 4 4 4 3 4 8 14 14 15 16 16 16 17 18 18 19 20 21 21
98 100 100 99 99 98 98 100 98 98 96 96 79 35 16 11 7 5 4 4 4 5 11 15 18 22 26 28 25 28 31 32 33 33 31 30 30 30
100 99 98 98 96 95 98 98 97 90 32 18 17 12 7 6 5 4 4 4 7 18 21 28 32 34 41 41 42 46 46 48 50 50 48 45 42 42
99 99 99 100 98 99 94 50 20 19 16 12 8 7 6 5 5 5 5 12 16 27 27 30 38 37 37 43 47 50 55 58 58 58 57 55 54 55
95 97 97 96 65 21 20 17 14 10 9 8 6 6 5 6 5 6 20 25 27 38 38 29 39 31 38 40 50 54 56 56 56 58 60 61 63 69
77 40 22 20 16 12 10 9 9 8 7 6 6 6 6 6 16 26 32 34 40 45 40 30 34 32 32 36 46 55 64 65 63 65 68 73 75 72
19 15 11 9 8 8 7 6 6 7 7 7 8 7 9 26 31 34 44 47 42 43 50 42 40 33 25 28 39 53 58 63 67 67 70 74 72 68
9 8 7 6 4 4 3 4 6 7 8 8 9 27 32 38 43 49 51 48 46 44 58 48 47 52 38 36 37 50 51 62 67 68 67 67 66 62
4 3 2 2 2 2 3 5 7 8 9 26 35 38 42 51 58 59 59 54 54 60 73 67 57 62 61 55 52 66 72 73 71 69 73 70 66 68
2 2 2 2 3 4 5 6 8 22 31 34 38 47 56 61 64 64 64 60 63 73 76 82 72 75 72 71 63 66 73 71 73 68 70 74 79 80
2 2 2 3 4 4 7 19 26 29 33 39 47 52 56 58 56 55 68 68 73 85 90 91 88 82 83 81 82 81 79 68 81 77 72 73 77 83
2 2 3 4 6 15 20 24 29 31 37 43 47 51 52 57 64 64 62 59 57 73 89 87 83 79 82 87 90 89 97 88 82 75 70 71 79 86
2 3 5 14 20 22 25 28 31 36 41 43 47 52 55 61 70 72 74 78 82 74 71 83 84 80 87 91 84 93 85 75 75 77 79 76 84 91
3 9 19 22 25 28 30 34 37 41 44 48 51 53 57 61 59 62 64 71 79 86 75 80 81 78 83 82 93 84 71 68 74 80 85 81 91 98
12 22 25 27 28 31 36 39 43 46 49 51 52 55 57 61 63 61 60 62 77 57 50 72 74 75 80 69 76 97 80 84 80 85 88 94 94 98
26 28 32 31 33 36 41 44 47 49 54 55 56 58 61 60 54 53 60 71 63 37 36 53 79 75 85 82 70 85 98 91 87 80 75 74 79 92
31 34 33 34 37 41 46 51 52 52 54 56 59 60 53 50 50 53 69 75 62 53 43 50 74 80 90 93 84 85 95 96 95 93 88 81 76 70
38 38 37 39 42 47 53 59 60 59 59 59 59 52 50 50 51 57 68 72 69 65 46 56 62 66 82 90 86 86 85 88 97 96 97 95 99 88
46 45 42 44 48 56 65 71 70 66 62 61 54 55 56 55 54 56 62 72 68 62 38 50 66 68 73 89 93 90 92 90 91 87 97 94 91 94

GFSNE_700_rhum_060.txt.gz
RH
100 98 100 99 99 100 89 93 92 99 99 98 100 100 100 100 98 99 100 99 97 100 98 95 93 72 31 20 16 9 6 5 4 4 3 3 3 3
94 99 99 100 100 97 97 98 100 100 93 100 99 99 100 100 98 98 96 93 91 95 96 81 62 28 16 9 6 5 4 3 3 3 3 3 4 5
92 97 98 98 93 99 100 99 98 100 100 99 100 98 97 98 98 97 98 98 96 88 48 23 16 10 6 5 4 4 3 3 3 5 7 8 8 8
80 82 90 95 100 100 92 99 100 100 99 99 98 97 97 99 97 97 96 96 78 18 13 7 5 4 4 3 3 3 5 8 10 11 12 14 14 14
86 88 95 86 100 99 98 99 99 98 98 96 96 92 93 97 97 87 38 17 12 6 5 4 4 4 4 7 9 12 13 17 21 23 23 23 23 24
84 84 99 100 99 99 98 98 98 97 92 93 97 99 93 40 18 16 11 7 6 5 4 4 6 13 20 19 20 25 26 25 22 20 22 25 27 30
79 83 99 99 98 99 96 94 91 90 94 100 65 21 18 14 9 7 7 6 5 5 7 14 22 27 32 33 32 28 24 21 21 26 26 28 31 34
96 99 97 93 96 90 86 96 100 97 26 19 17 12 9 8 7 6 5 6 6 26 28 29 40 37 33 28 28 24 24 26 28 28 26 25 28 34
99 98 96 83 87 92 81 31 20 15 11 9 8 7 6 6 6 6 7 15 27 37 38 36 38 29 36 38 31 29 26 26 30 29 26 28 31 34
86 68 63 38 22 18 13 10 8 7 6 5 4 4 5 6 6 16 28 31 41 48 43 34 38 42 49 45 42 31 32 37 39 40 38 36 39 39
24 20 15 11 9 8 6 4 3 2 2 3 4 5 6 14 23 29 39 44 43 48 51 42 43 46 48 49 54 58 53 49 50 50 49 49 45 47
9 8 6 5 3 2 2 2 2 3 4 4 6 14 22 28 36 41 43 40 42 44 53 45 44 45 40 48 52 60 67 71 68 70 68 68 65 58
2 2 2 2 2 2 2 3 3 4 6 13 18 24 32 40 43 44 40 36 44 54 68 57 50 54 48 47 52 61 71 72 70 70 68 69 69 68
2 2 2 2 2 2 3 3 6 14 17 20 27 34 41 46 46 46 48 49 54 60 68 69 58 64 61 55 55 65 76 69 68 74 71 71 74 77
2 2 2 2 3 3 4 13 19 21 25 30 36 41 46 49 50 54 57 59 69 79 88 92 80 69 67 62 60 71 83 72 82 72 67 67 71 75
2 2 2 3 3 8 18 21 23 26 32 37 41 46 50 50 51 54 54 53 54 62 77 84 68 59 64 67 66 74 91 83 83 76 72 77 81 88
2 2 3 4 12 19 22 24 27 33 37 40 43 48 50 51 55 53 53 52 53 54 63 61 38 37 53 66 67 87 81 78 74 75 80 79 97 96
3 3 7 17 21 23 25 28 33 39 42 45 48 51 52 56 58 59 53 49 54 65 66 52 45 42 47 63 78 82 86 73 68 71 78 76 88 97
5 10 19 23 26 28 31 36 41 44 47 50 53 54 55 58 56 49 47 48 58 66 66 68 56 47 50 53 63 95 79 75 74 74 84 85 84 90
17 22 26 30 32 33 36 41 46 48 51 54 56 56 57 52 48 47 47 49 52 57 63 72 54 46 67 66 45 66 98 91 84 76 75 78 84 92
27 32 37 40 38 39 43 48 52 55 58 58 59 59 54 50 51 53 53 53 52 58 64 61 37 37 74 73 54 59 84 96 92 84 79 77 77 78
34 39 45 47 44 45 50 57 66 69 70 67 62 62 55 58 61 62 64 62 57 58 63 57 37 32 63 78 59 58 73 90 98 95 96 92 77 68
40 47 53 53 48 52 63 70 72 74 76 78 77 71 64 64 66 65 65 67 65 59 56 58 57 42 58 72 65 58 67 87 85 85 97 97 92 88

GFSNE_700_rhum_063.txt.gz
RH
77 79 76 82 92 100 100 98 100 95 100 97 100 100 100 100 100 100 100 97 99 97 100 98 92 89 89 90 88 81 69 37 17 11 8 6 5 4
78 80 84 92 96 96 100 98 100 100 92 100 100 100 98 98 98 99 97 97 100 97 93 87 87 92 94 91 76 37 18 11 6 5 4 4 3 3
83 82 83 86 90 99 100 100 99 98 100 100 94 99 98 99 98 95 94 92 92 89 92 97 100 97 68 25 12 8 6 5 4 4 4 4 5 6
71 80 85 90 97 99 99 93 100 100 100 100 99 96 94 96 94 88 91 96 100 100 97 53 18 14 9 6 5 5 5 4 5 6 7 9 10 12
51 60 73 82 83 100 89 100 94 100 100 92 98 97 98 91 96 100 99 92 45 18 15 10 7 6 5 5 5 5 7 11 13 14 17 18 19 18
52 54 73 98 96 99 85 98 92 95 93 97 100 94 95 98 95 64 21 16 10 8 7 6 5 5 6 9 14 18 22 24 23 21 18 15 14 12
78 91 100 100 92 93 100 90 85 92 94 95 96 91 88 36 18 11 8 6 5 5 5 5 7 13 22 30 34 34 28 22 22 22 19 17 14 12
73 96 100 100 100 94 95 93 91 88 88 79 29 18 10 8 5 3 4 4 5 10 13 24 28 33 38 34 29 29 33 34 30 23 19 17 17 15
98 99 100 98 98 94 83 83 41 24 18 12 8 5 2 2 2 4 5 10 20 27 31 37 34 26 28 33 38 41 42 43 39 27 23 23 22 21
99 97 76 72 79 46 22 16 11 8 6 3 2 2 2 3 5 11 19 26 35 33 25 20 25 26 30 33 43 50 53 54 54 50 44 40 40 37
68 35 23 16 11 9 7 5 3 2 2 2 2 3 5 10 16 24 31 31 28 27 30 24 29 28 31 37 44 54 61 63 62 60 58 57 60 61
7 4 3 2 2 2 2 2 2 2 2 2 4 8 15 20 26 31 35 34 31 34 36 38 38 38 22 28 33 44 54 64 64 64 64 64 65 63
2 2 2 2 2 2 2 2 2 2 3 4 11 16 22 27 30 36 37 39 42 49 56 52 51 52 40 28 27 42 51 56 61 64 67 64 63 67
2 2 2 2 2 2 2 2 3 4 7 15 18 23 28 29 34 36 38 44 47 51 54 53 48 55 48 30 27 35 52 62 69 65 64 66 66 65
3 2 2 2 2 2 3 3 4 13 18 21 25 29 31 34 39 41 44 49 48 52 56 58 56 63 49 41 35 36 45 56 83 74 70 64 65 70
3 3 3 2 2 3 4 11 19 21 24 28 32 34 38 42 45 44 47 47 46 49 51 62 65 61 57 56 45 44 55 59 74 84 76 70 76 83
4 4 4 3 4 6 15 20 24 27 31 34 37 40 43 46 48 50 49 48 43 41 47 65 69 64 63 59 42 54 55 58 70 66 69 72 74 90
4 5 7 8 14 21 24 27 29 34 37 39 42 44 46 49 50 52 51 44 42 44 48 55 61 61 58 41 41 48 51 58 74 75 77 70 66 95
5 9 14 19 24 28 31 31 33 36 40 45 49 50 51 52 53 53 46 45 47 50 53 57 61 61 54 38 32 66 73 64 66 74 84 82 71 77
7 11 21 28 32 35 36 36 40 44 48 54 57 56 55 56 56 50 51 55 56 57 57 61 62 64 67 57 34 46 86 74 67 71 80 82 82 82
10 12 27 37 42 44 43 45 49 54 61 67 68 67 67 63 62 56 57 61 61 59 57 63 67 65 72 65 43 40 63 75 75 72 79 79 74 73
10 12 30 41 48 51 49 51 57 69 71 72 73 74 75 75 73 69 65 64 64 63 64 69 74 64 55 66 62 46 43 62 75 74 94 95 87 70
10 13 32 42 50 56 55 59 70 74 75 74 74 75 79 80 81 81 77 74 72 73 78 79 79 63 57 66 66 54 45 58 62 58 79 96 97 98

GFSNE_700_rhum_066.txt.gz
RH
56 75 87 86 84 84 86 90 97 100 98 89 100 99 100 96 99 100 100 99 90 94 100 99 96 100 99 98 94 90 91 93 98 94 64 28 18 12
51 63 74 86 90 91 92 94 97 98 100 99 98 100 99 100 99 99 97 91 98 95 92 94 95 94 92 94 94 94 92 80 57 28 12 8 7 6
53 49 51 68 83 99 99 100 100 98 100 100 97 100 100 98 99 95 99 96 95 97 98 93 87 82 83 80 52 26 16 12 9 8 7 6 5 5
63 64 53 52 66 83 90 98 100 100 100 97 100 93 99 99 99 99 100 99 91 87 88 84 44 22 17 12 10 8 7 6 6 5 5 5 6 7
70 75 81 54 62 75 99 99 96 99 90 94 100 96 97 98 94 96 90 90 66 25 17 12 9 8 7 6 5 4 5 5 7 9 12 15 19 23
76 93 89 58 98 95 82 91 99 94 90 98 92 98 99 91 87 82 45 17 11 7 5 3 3 3 4 6 10 14 18 21 24 25 24 21 18 18
77 96 94 90 94 94 93 98 96 92 96 98 97 90 82 56 23 13 7 4 2 2 2 4 8 14 20 26 29 28 24 21 20 23 28 31 31 27
84 93 98 97 91 98 99 95 100 100 93 85 50 20 14 8 6 2 2 1 3 6 12 19 16 20 20 20 21 23 25 30 36 36 37 37 37 31
94 97 97 99 100 100 98 97 88 78 30 16 10 7 4 2 2 2 2 6 12 16 16 20 15 17 19 22 26 28 31 35 39 44 45 44 44 43
96 96 95 95 79 60 38 22 14 9 6 4 2 2 2 2 2 4 9 18 22 20 14 18 19 23 24 27 28 33 38 40 46 49 52 53 52 51
26 20 14 8 5 4 3 2 2 2 2 2 2 2 2 3 6 13 19 23 25 24 20 23 29 29 36 39 36 42 48 50 50 50 54 58 60 62
2 2 2 2 2 2 2 2 2 2 2 2 2 3 4 8 14 20 23 26 27 32 29 33 34 29 26 37 32 28 30 40 44 48 56 62 63 62
4 3 3 2 2 2 2 2 2 2 2 3 3 4 12 17 22 24 29 32 33 37 37 31 35 34 34 33 40 44 38 33 34 42 51 61 63 65
7 6 4 3 3 3 2 2 3 3 3 4 8 15 20 25 28 30 33 37 39 44 43 36 33 36 36 36 36 44 40 37 38 41 48 64 67 67
11 9 6 5 4 3 3 3 3 4 8 15 20 23 26 29 32 33 38 40 45 49 49 45 39 39 40 41 38 43 34 31 47 44 47 62 66 64
12 10 7 4 4 4 5 6 11 16 21 24 26 28 30 34 37 38 43 45 49 55 54 47 46 45 43 44 44 40 34 30 41 55 53 69 73 74
11 7 5 5 6 10 12 18 23 26 27 29 33 37 40 43 46 49 51 52 52 51 47 50 52 53 52 51 49 48 40 33 44 44 40 47 67 77
8 6 7 7 10 16 21 25 28 29 31 36 40 44 48 50 52 55 56 55 53 47 48 56 58 56 55 54 59 50 47 38 36 44 48 46 60 79
6 8 9 8 12 20 27 31 33 33 36 41 45 50 53 56 58 58 57 56 51 52 59 62 61 58 54 57 57 64 58 57 45 49 60 58 52 74
6 10 10 8 14 27 34 38 40 38 40 45 52 60 63 63 66 68 66 64 60 59 61 64 63 63 66 69 61 55 73 62 55 50 53 54 54 69
8 13 10 8 16 31 41 45 44 43 46 54 64 67 69 68 70 72 74 76 75 73 69 70 71 75 80 81 72 57 52 67 62 56 53 60 50 60
11 16 11 10 19 34 44 50 48 49 56 66 69 72 73 71 71 75 77 78 81 80 80 82 84 86 83 83 71 54 48 52 50 51 59 69 62 63
14 18 14 15 24 36 45 55 60 65 67 70 75 77 74 74 80 80 81 80 76 70 72 68 72 76 80 72 58 50 48 49 44 42 49 80 72 84

GFSNE_700_rhum_069.txt.gz
RH
44 45 44 46 54 66 98 98 99 99 100 99 100 100 98 99 99 99 99 99 99 100 98 98 100 100 100 100 99 98 93 89 84 82 81 80 80 76
51 50 49 53 53 56 58 66 82 98 100 100 99 100 100 99 99 99 99 100 99 95 100 100 100 97 92 87 85 81 77 75 68 49 34 26 21 16
50 63 63 63 66 62 57 67 65 81 99 98 100 99 100 98 99 96 99 100 100 100 100 99 91 89 82 69 44 26 21 18 14 11 9 8 8 7
64 66 69 68 73 71 74 71 97 98 99 99 97 99 98 100 100 100 100 99 98 98 94 89 56 22 16 10 8 8 6 5 4 3 3 3 4 5
60 62 72 71 75 80 89 83 100 100 93 99 98 100 95 95 100 99 98 98 95 80 34 14 9 6 3 2 2 2 4 6 8 9 11 14 16 20
64 67 74 78 77 74 79 98 100 98 96 100 100 99 100 100 99 97 96 63 20 12 6 4 2 2 3 8 12 12 11 11 12 13 14 14 15 16
64 98 81 94 83 100 98 94 98 99 100 97 99 100 100 93 63 24 14 9 5 3 2 2 4 12 14 12 11 10 10 11 12 15 18 21 25 30
99 93 100 100 97 96 95 99 98 99 99 98 95 42 21 12 9 6 4 2 2 2 4 11 18 17 15 14 13 11 12 14 16 18 20 22 26 32
93 92 87 88 96 94 90 84 71 61 52 34 14 8 5 3 3 2 2 2 2 8 17 22 19 18 20 20 19 18 16 15 16 17 19 21 26 34
14 15 15 13 10 10 6 4 3 3 2 2 2 2 2 2 2 2 2 4 12 16 20 23 22 25 33 31 30 29 25 22 22 20 22 23 27 30
4 4 3 3 2 2 2 2 2 2 2 2 2 2 2 2 2 3 6 16 21 21 22 25 26 30 33 36 36 38 37 33 34 31 27 28 31 35
11 10 9 7 5 4 4 3 2 2 2 2 2 3 3 3 4 10 18 25 30 31 27 29 31 28 28 37 41 43 42 42 41 38 34 33 34 39
16 16 16 14 11 8 5 4 3 3 3 3 3 3 4 6 14 21 27 30 32 34 30 30 36 31 27 28 38 37 37 41 42 37 32 33 35 42
17 18 17 15 10 6 5 4 4 4 4 4 6 9 14 21 25 28 29 31 34 38 37 34 37 34 31 31 33 38 38 39 36 32 29 34 42 44
21 20 18 13 7 5 4 5 6 8 10 14 18 20 22 24 27 30 34 36 39 42 41 42 41 37 36 38 38 44 40 43 43 38 30 34 42 47
24 20 14 8 6 6 6 8 11 15 18 21 22 24 27 31 36 37 39 41 46 50 49 49 46 40 43 48 48 49 49 49 48 46 36 35 46 48
25 18 9 6 7 7 8 12 17 21 23 26 28 32 35 38 41 43 44 47 49 52 56 53 47 48 52 52 50 53 53 56 54 50 45 37 42 48
25 13 6 7 8 8 9 15 23 27 30 32 33 35 39 42 48 52 55 56 54 56 57 53 54 56 56 58 60 59 61 59 52 49 49 42 37 45
24 9 6 9 9 8 9 18 27 32 34 35 37 40 46 52 59 63 64 65 67 67 67 65 64 62 59 60 63 75 68 65 58 52 54 49 43 43
23 9 7 10 11 9 11 20 31 37 37 38 41 46 55 59 65 68 69 69 69 71 72 78 79 76 71 66 55 62 80 63 62 55 49 45 44 42
32 11 7 12 15 12 15 24 36 43 42 41 45 56 66 67 72 72 71 72 72 70 68 74 82 79 72 66 57 59 64 66 59 52 48 44 40 34
44 14 9 15 19 17 20 29 40 50 53 54 60 66 70 74 73 71 72 74 74 69 62 60 62 64 66 66 63 60 57 53 52 50 49 50 47 38
56 23 10 16 23 23 24 29 37 45 54 60 65 70 77 78 76 74 77 78 72 61 58 57 61 66 66 68 65 59 58 50 48 43 41 49 49 49

GFSNE_700_rhum_072.txt.gz
RH
39 43 45 46 48 49 52 59 62 63 61 63 83 94 94 99 100 98 99 100 99 99 98 99 100 99 100 100 100 100 99 97 91 87 83 79 80 79
31 35 38 38 42 52 60 61 63 66 58 58 73 96 90 93 99 99 99 99 98 98 98 99 100 99 100 100 98 92 90 86 80 72 56 36 27 22
48 52 53 54 55 54 60 65 70 68 68 66 66 91 99 89 98 99 98 98 99 99 100 98 100 98 98 95 88 82 56 29 17 12 9 7 6 5
49 55 50 52 57 63 69 70 78 84 88 89 96 94 93 98 100 98 96 98 99 98 98 100 97 94 89 53 19 11 7 4 2 2 2 3 4 5
45 50 45 49 58 65 72 77 84 87 82 81 91 96 98 97 99 99 99 99 99 100 100 94 68 24 11 6 3 2 2 4 7 9 9 9 9 10
46 49 52 55 59 64 80 82 100 98 98 99 98 98 99 99 100 99 98 98 90 58 28 12 8 4 2 2 2 8 9 8 7 8 8 9 11 13
56 58 59 69 78 96 97 97 95 100 96 99 99 99 94 98 79 47 24 16 11 8 5 4 3 2 2 9 12 10 10 10 10 10 10 10 11 13
37 49 58 67 72 77 87 94 92 93 89 73 60 46 36 20 12 8 6 4 3 3 2 2 2 5 15 15 12 13 14 14 14 14 14 14 13 13
4 5 6 6 4 4 7 10 8 7 6 5 4 4 3 2 2 2 2 2 2 2 3 4 14 22 19 16 18 20 20 19 19 21 21 22 22 20
8 9 8 7 5 4 4 3 3 3 2 2 2 2 2 2 2 2 2 2 3 3 9 22 27 25 22 24 27 26 25 23 23 24 23 26 27 26
16 17 17 16 14 11 9 7 5 4 3 3 3 2 2 3 3 3 3 3 5 12 24 34 34 33 32 32 32 33 28 26 24 25 28 31 30 28
19 20 22 22 22 20 17 13 9 6 4 3 3 3 3 3 3 4 5 9 22 31 32 34 36 36 40 40 38 37 33 30 31 31 31 33 30 27
23 24 25 27 28 25 18 13 8 4 4 4 4 5 6 7 8 12 18 24 29 33 33 35 37 37 41 39 38 39 38 37 34 36 36 36 33 28
26 29 32 31 27 18 11 6 5 4 5 6 7 9 11 14 18 22 26 32 34 35 35 32 38 42 43 41 37 39 40 40 40 41 43 42 40 32
37 37 32 26 18 10 6 6 5 6 7 9 11 14 16 19 22 26 30 32 33 36 37 39 44 48 46 43 37 40 42 46 47 45 48 47 43 41
42 39 33 25 14 7 7 7 6 6 9 12 16 20 22 25 28 31 33 35 40 43 42 43 46 48 49 44 42 48 48 44 47 50 52 52 47 47
45 43 35 22 9 7 8 7 7 8 11 17 22 25 27 30 34 37 40 46 48 53 56 54 51 52 50 48 48 55 52 54 56 60 62 55 48 48
49 47 40 22 9 7 8 8 8 9 15 22 27 29 31 34 39 44 48 55 58 62 64 68 68 66 62 61 62 64 65 66 66 67 67 54 42 49
52 52 49 33 14 8 10 11 10 12 18 27 32 33 34 37 42 50 55 59 63 65 68 71 74 70 64 61 67 72 73 71 61 60 60 54 43 44
53 55 54 47 26 10 10 15 14 14 21 31 37 37 37 38 46 56 62 67 68 66 67 76 79 74 67 59 46 54 73 60 57 54 54 52 50 45
47 54 58 58 36 14 11 17 18 18 23 32 40 44 45 47 58 64 69 73 70 68 69 74 76 68 59 54 51 52 58 69 64 57 54 53 48 40
36 49 59 65 57 26 13 21 25 24 26 33 41 49 57 61 65 69 76 77 78 79 80 78 70 63 60 60 60 59 60 65 68 65 66 62 54 43
29 39 52 67 74 52 18 23 31 33 33 34 38 42 48 55 63 71 78 83 84 83 86 83 83 84 78 74 70 65 62 61 59 60 61 63 64 58

GFSNE_700_rhum_075.txt.gz
RH
36 28 26 25 29 35 39 44 46 43 44 46 58 59 57 64 76 88 97 99 95 98 99 98 98 98 98 99 99 100 98 100 100 97 97 94 88 84
19 26 35 40 45 51 54 52 50 48 45 51 62 70 70 70 73 78 99 88 97 100 98 98 98 99 100 100 98 100 99 100 100 94 89 86 80 58
32 40 39 41 48 52 47 44 43 49 54 69 74 81 90 84 96 93 99 100 99 88 95 96 98 99 99 100 98 100 100 95 90 76 48 23 11 6
40 39 40 43 46 42 40 44 47 53 61 76 87 89 82 100 88 98 100 99 90 89 99 96 97 97 98 99 99 96 94 56 20 10 6 2 2 4
38 38 38 40 41 43 45 49 54 62 69 75 87 83 95 96 97 97 100 100 100 100 99 97 96 99 100 97 71 31 12 6 4 2 3 7 7 6
43 43 44 48 48 50 53 63 60 67 80 91 84 93 100 100 100 97 98 100 97 90 86 89 81 51 27 12 7 5 3 2 4 10 9 7 7 8
40 43 52 56 50 46 44 50 46 35 53 65 77 80 90 93 87 83 67 43 28 19 16 11 8 6 4 3 2 2 4 12 12 10 10 10 11 11
8 6 6 6 5 4 4 3 3 3 3 4 6 8 5 4 4 4 4 3 3 2 3 3 2 2 2 2 4 15 16 14 13 13 16 18 17 18
11 11 11 11 11 10 9 8 8 7 6 4 3 3 2 2 2 2 2 2 2 2 2 2 2 2 3 11 22 19 16 17 19 20 22 23 24 24
17 18 18 19 20 21 21 21 20 18 13 10 7 5 4 3 3 3 3 3 3 2 3 3 4 9 19 25 22 20 22 23 22 24 25 26 28 28
19 20 22 23 24 25 26 27 26 23 18 12 8 5 4 3 3 3 3 3 3 4 5 10 18 27 30 28 26 28 28 27 26 26 27 30 31 30
20 21 22 24 27 29 31 30 25 18 12 7 5 4 4 4 5 5 6 7 8 12 18 23 31 34 35 34 34 36 34 31 29 30 31 33 32 33
21 24 29 33 35 35 31 25 18 10 7 5 4 5 6 7 8 10 12 14 18 22 27 29 28 30 33 37 40 41 38 35 32 34 34 37 39 39
30 36 38 38 36 33 30 21 11 8 7 5 5 6 8 10 13 16 18 21 25 29 31 29 28 33 34 38 40 48 47 44 41 42 43 44 44 44
39 40 40 39 37 35 30 18 10 9 8 6 6 8 11 15 18 21 24 26 30 35 36 37 37 40 41 42 43 48 45 44 47 49 47 45 47 52
42 43 44 43 41 36 30 17 10 8 8 7 8 10 14 18 21 24 27 31 34 40 42 41 43 45 45 46 46 47 47 43 50 51 48 52 57 62
42 44 46 46 45 43 36 22 12 9 9 9 9 12 18 22 24 26 28 32 37 44 52 54 54 50 51 53 53 57 56 56 60 61 59 58 62 66
37 43 45 47 50 49 44 33 16 10 11 11 12 15 22 26 28 30 32 34 42 52 57 60 64 63 57 57 63 61 63 65 68 65 66 61 58 65
30 34 38 44 48 52 54 47 27 14 11 14 15 17 24 31 33 35 37 42 50 56 64 71 71 68 62 62 65 73 69 76 69 60 58 56 50 53
25 27 30 35 40 47 58 62 48 21 14 17 19 22 27 37 43 44 44 45 54 64 71 78 80 75 72 69 60 63 74 62 59 55 55 57 56 52
25 26 26 28 35 50 57 68 68 40 21 22 26 27 30 34 41 51 59 64 66 68 73 82 87 87 84 79 68 60 58 62 68 64 58 56 54 50
25 26 26 46 79 79 74 75 75 48 23 25 32 34 36 36 38 41 46 52 62 68 74 86 93 93 94 91 80 74 71 74 75 78 74 69 61 51
28 28 35 73 84 82 80 80 78 47 27 28 35 41 43 44 47 49 52 54 57 59 63 67 78 90 94 94 96 90 85 80 77 74 75 82 75 72

GFSNE_700_rhum_078.txt.gz
RH
46 38 32 25 22 28 37 42 47 46 47 39 30 34 45 52 60 65 65 74 78 88 99 100 98 99 98 97 98 99 96 98 98 98 98 98 98 100
18 18 18 24 34 41 42 45 50 47 39 35 32 34 52 56 66 74 81 88 98 97 98 98 100 97 98 98 99 99 98 99 99 100 100 100 99 98
21 23 30 35 37 38 42 42 41 39 37 37 37 42 54 63 67 72 88 91 94 98 99 99 100 99 99 99 99 97 99 97 98 99 100 99 96 85
33 35 36 34 36 39 38 41 42 38 45 47 46 55 57 61 67 72 85 86 91 95 93 98 100 100 93 90 96 95 95 97 98 99 96 71 29 12
38 38 38 39 41 44 46 46 44 55 54 55 57 65 65 66 64 72 76 92 93 100 100 95 91 88 86 87 90 94 97 94 84 47 18 8 3 2
41 41 40 44 48 50 51 50 52 49 26 13 13 15 36 22 39 40 47 53 54 58 49 45 44 46 54 45 40 30 21 13 8 5 3 2 6 10
26 16 17 17 13 9 8 5 5 5 5 5 5 4 3 3 3 3 3 3 4 4 5 5 6 7 6 5 5 4 4 3 3 3 8 13 11 11
9 9 10 10 12 12 14 14 14 14 15 15 14 11 9 8 6 5 3 2 2 2 2 2 2 2 2 2 2 2 3 3 8 17 15 14 15 17
13 14 17 18 19 20 21 22 23 24 24 24 22 19 15 12 8 5 4 3 3 3 2 2 2 2 2 2 3 5 12 20 19 18 20 23 25 25
17 18 20 20 21 22 23 24 26 28 29 27 21 16 11 7 5 4 3 3 3 3 3 3 3 4 4 7 15 24 25 22 21 22 23 25 26 26
18 20 20 20 22 25 29 32 32 31 27 22 16 11 8 6 4 4 4 4 5 6 6 7 8 11 15 20 24 27 26 24 24 24 27 28 29 31
19 19 21 26 32 35 34 33 31 28 23 16 10 7 5 4 4 5 6 7 8 9 11 13 18 23 25 26 27 28 29 29 29 30 31 31 31 32
18 24 30 36 36 36 35 33 31 27 19 14 11 9 6 5 5 6 8 10 11 13 15 19 23 27 27 28 34 36 35 34 33 35 34 34 32 32
25 32 37 38 38 39 38 36 33 27 19 14 11 9 8 6 7 8 11 13 15 19 22 23 24 28 27 29 32 42 43 41 41 41 39 37 37 39
30 34 37 38 40 42 42 40 37 31 23 16 12 10 9 8 9 12 15 17 20 24 27 29 30 31 32 35 35 40 44 52 53 49 44 41 42 45
31 33 35 38 41 42 46 46 44 40 32 23 15 12 10 10 11 14 18 20 23 26 28 31 34 35 37 44 47 49 51 50 50 48 46 47 49 51
29 30 32 35 38 40 42 46 50 51 49 36 22 14 12 12 14 18 23 25 26 30 35 37 42 43 44 45 50 60 60 61 63 60 58 56 60 63
26 27 29 30 32 34 36 39 46 58 60 57 40 22 16 15 17 21 27 30 31 34 38 42 48 53 56 57 58 58 60 70 73 70 66 57 53 62
23 25 26 27 29 30 31 41 62 65 67 66 64 40 23 20 21 23 28 35 42 43 45 49 57 61 60 62 67 68 73 82 73 68 65 58 48 52
23 24 24 26 28 29 31 59 76 76 74 72 69 52 30 22 26 29 31 35 43 53 63 72 76 75 74 75 71 72 83 82 76 64 60 57 56 57
25 25 26 27 29 32 46 77 81 78 76 76 73 59 34 25 31 36 38 40 41 44 48 56 69 74 77 78 78 81 84 88 93 84 76 71 68 64
27 27 29 30 32 48 71 82 81 78 76 77 75 59 40 32 35 41 45 47 52 55 57 63 69 70 70 70 68 71 74 84 94 98 98 94 82 66
33 32 36 41 52 66 84 81 80 80 80 81 77 59 46 35 40 48 52 58 64 70 77 81 85 87 86 85 84 80 80 80 81 84 97 98 96 86

GFSNE_700_rhum_081.txt.gz
RH
44 46 45 39 24 22 22 31 40 43 44 43 40 39 39 36 39 53 57 62 68 62 55 66 82 96 94 97 97 96 96 96 97 97 97 97 97 97
40 31 17 19 20 27 35 39 41 44 42 36 40 42 39 38 45 56 54 58 65 60 75 79 96 97 95 93 93 96 96 97 97 98 97 97 97 97
18 23 24 28 35 35 36 37 40 38 38 40 48 48 44 54 54 56 56 61 69 73 72 82 87 92 98 99 97 97 98 98 97 98 97 98 97 97
27 32 36 37 36 34 35 36 41 42 44 48 43 42 53 58 59 61 59 58 62 68 74 77 86 88 96 96 98 90 91 94 94 95 99 99 99 95
36 38 38 38 37 39 42 45 49 49 49 46 8 6 6 16 11 8 19 24 34 40 50 57 56 52 62 76 79 80 79 80 85 84 84 70 48 26
41 42 38 31 34 28 22 16 8 6 6 6 8 10 9 8 7 6 4 4 3 3 3 5 8 9 10 11 12 12 17 18 17 13 11 8 6 4
44 20 11 9 8 8 10 12 14 15 15 17 18 19 19 18 16 14 11 9 8 5 4 3 3 3 3 2 2 3 3 3 3 3 3 3 3 5
9 9 11 13 16 18 19 20 21 21 22 23 24 25 25 23 21 18 15 11 8 5 3 3 3 2 2 2 2 2 2 2 2 2 3 11 17 15
10 14 17 18 20 20 21 21 22 25 28 29 29 28 26 22 18 12 8 6 4 3 3 3 3 3 3 3 3 3 3 3 8 16 18 17 17 19
14 17 18 20 19 20 23 28 31 32 32 30 27 24 20 13 9 5 4 4 4 4 4 4 5 5 5 6 7 8 13 18 20 20 19 21 24 25
16 18 19 19 20 28 32 32 33 32 30 28 25 20 16 13 10 8 6 5 4 5 6 7 7 8 9 11 15 20 24 25 25 25 26 28 28 29
17 17 18 22 30 34 34 34 34 33 31 28 24 20 17 16 14 11 8 6 6 7 8 9 11 13 15 18 21 23 24 24 24 24 26 29 32 32
16 18 24 31 35 35 34 36 38 36 33 30 26 22 19 18 16 14 10 8 8 8 10 12 14 16 19 22 25 25 25 24 23 23 22 27 32 34
18 24 30 34 35 34 37 40 42 42 39 36 34 31 27 22 18 14 12 10 10 12 12 14 17 19 21 25 28 35 35 33 30 31 30 32 34 36
23 27 31 33 34 36 39 40 42 45 46 47 46 44 39 34 26 19 15 12 12 13 14 17 19 21 23 26 29 35 40 49 44 40 40 39 40 41
24 27 29 31 32 34 36 38 39 41 46 55 57 56 53 45 35 25 19 15 15 17 18 19 22 25 28 32 35 43 48 51 55 58 55 52 51 49
23 25 26 28 29 31 32 34 36 38 53 64 64 62 61 58 52 41 27 19 18 21 24 23 25 29 34 37 40 49 54 58 62 64 64 63 65 64
21 23 24 25 26 27 30 33 34 36 56 71 68 67 66 64 58 45 33 24 22 25 31 35 35 37 39 44 50 52 59 64 69 70 66 61 66 72
20 21 22 24 24 26 29 31 35 46 71 74 71 68 68 68 62 48 37 30 29 30 33 34 39 42 44 51 60 67 72 79 79 80 79 75 65 66
22 23 23 24 24 26 28 31 40 63 77 75 73 70 70 70 65 52 44 36 33 36 40 43 45 43 44 44 44 53 65 68 77 82 89 87 79 71
25 26 25 25 26 28 32 36 55 75 79 76 75 74 75 74 69 60 53 41 36 40 46 54 57 57 58 61 63 65 67 67 70 71 81 88 91 87
27 31 27 29 30 31 39 54 70 82 80 76 76 76 77 76 74 67 50 40 45 49 55 68 76 78 78 78 77 76 80 84 85 84 86 81 76 72
52 65 32 33 35 47 63 68 84 86 83 80 79 79 78 79 79 66 47 44 51 62 72 75 74 71 72 76 76 76 82 86 87 84 86 99 94 88

GFSNE_700_rhum_084.txt.gz
RH
31 39 43 46 48 47 36 22 20 29 37 39 41 39 36 36 37 36 40 56 54 51 59 68 68 71 98 100 96 100 98 97 95 97 96 97 98 97
31 33 38 40 24 21 22 28 37 39 41 43 39 39 44 45 46 54 52 53 52 55 62 65 66 71 81 94 100 97 91 96 96 96 98 95 97 97
23 26 18 23 25 30 36 38 38 37 37 41 46 45 36 47 52 51 50 56 56 57 61 66 71 73 82 88 91 90 91 93 99 97 96 97 98 96
13 19 28 31 38 39 39 40 42 43 44 44 49 15 6 7 16 8 7 23 30 49 50 53 64 68 70 71 73 81 83 92 90 93 97 100 97 97
26 32 36 40 41 40 42 41 38 29 26 15 8 6 8 10 10 9 8 6 5 5 4 6 14 40 46 44 45 57 73 76 77 73 71 74 75 71
35 39 43 42 34 28 12 10 9 9 11 13 14 15 17 18 18 18 17 15 14 12 8 6 4 3 3 3 4 4 4 5 5 5 6 6 6 7
45 47 35 16 9 9 12 14 16 18 20 21 21 22 23 24 24 24 22 20 18 14 11 8 6 4 3 3 3 2 2 2 2 2 2 2 2 3
50 20 8 11 14 17 19 19 20 21 22 24 26 28 28 28 27 24 22 20 16 12 10 7 4 3 3 3 3 3 3 3 2 2 2 2 2 4
9 8 13 17 18 19 19 19 22 26 30 30 29 28 27 25 22 18 12 8 6 4 4 3 3 3 4 4 4 4 4 4 4 4 7 12 15 16
8 14 16 18 19 19 20 26 31 31 30 30 29 27 25 22 19 16 14 12 10 9 6 5 5 5 5 5 6 6 6 7 8 13 17 19 19 20
13 15 18 18 18 21 28 32 32 30 30 31 30 27 24 22 19 18 18 17 15 12 9 8 8 7 7 8 9 10 12 14 18 20 22 23 24 25
13 17 18 18 21 30 33 33 31 32 34 35 33 29 26 24 23 23 23 22 20 17 13 12 9 9 9 10 12 15 17 20 22 23 25 26 28 30
16 16 17 22 28 33 34 32 34 38 39 39 38 35 34 33 32 32 30 29 26 22 17 14 11 11 11 13 16 17 19 20 21 22 22 23 27 28
15 17 21 27 31 33 33 34 38 39 40 42 44 45 47 48 47 44 40 36 33 29 25 18 14 14 15 18 20 23 22 23 23 25 26 29 31 33
16 19 24 28 30 32 32 34 36 38 40 40 46 54 55 54 53 52 49 46 41 35 28 21 17 17 19 20 22 24 28 34 34 37 34 35 37 38
17 21 24 26 28 29 30 32 33 36 38 39 44 57 61 58 57 56 55 52 49 42 34 24 21 22 24 25 25 28 30 34 41 46 51 53 47 45
18 20 22 24 25 26 27 28 30 33 36 38 44 60 66 62 60 59 57 57 54 46 38 32 27 25 28 31 33 34 34 36 42 49 54 59 64 61
18 19 20 21 22 23 24 25 27 29 32 38 52 68 69 66 64 62 61 60 58 51 43 36 33 31 30 35 38 41 43 50 57 59 60 60 69 76
17 19 19 20 21 22 23 24 26 28 31 37 56 72 72 70 68 66 65 65 62 56 50 42 36 35 35 37 40 42 46 49 49 54 62 65 65 76
19 20 20 21 22 29 29 25 27 29 33 43 68 77 73 71 70 70 69 69 67 62 52 42 41 41 40 42 48 61 62 62 63 62 62 60 57 61
24 24 24 24 24 41 46 26 28 29 36 56 76 81 75 73 73 73 73 73 72 66 51 46 47 46 49 54 57 66 72 74 76 77 77 75 72 70
28 28 28 27 27 43 57 32 34 42 63 74 89 87 82 79 78 77 78 78 76 66 54 50 51 56 59 57 52 46 54 68 74 75 79 81 73 66
34 33 31 45 45 69 94 64 55 81 95 96 96 93 87 85 84 82 81 82 78 68 56 53 60 64 58 52 48 47 54 64 72 72 74 86 86 77

GFSNE_700_rhum_087.txt.gz
RH
23 25 30 36 42 46 48 48 41 23 24 31 40 40 36 32 33 36 39 35 40 44 45 52 56 55 55 64 73 80 100 99 96 99 98 96 97 97
29 32 31 32 36 39 38 23 25 32 39 37 38 37 38 40 38 41 44 48 50 50 52 55 57 60 62 71 99 100 100 100 100 97 98 96 95 88
29 24 22 24 25 20 27 32 39 38 38 40 42 44 45 15 27 29 25 20 30 40 45 50 51 55 66 68 73 82 90 92 89 92 92 90 90 88
19 16 15 16 25 30 38 41 40 40 41 45 46 47 15 6 7 7 8 8 7 6 6 7 9 8 29 60 67 74 68 63 73 80 84 85 93 95
17 17 19 29 33 42 42 40 41 34 17 12 8 8 10 13 14 15 16 16 16 15 14 11 9 7 5 4 8 16 14 11 11 16 28 44 54 60
25 26 34 36 45 44 40 19 9 9 12 14 16 17 18 19 20 21 22 22 22 21 19 18 16 13 10 7 5 4 4 3 3 3 3 3 4 6
37 39 41 48 43 21 8 11 15 17 18 19 20 21 23 25 27 27 26 25 24 22 20 17 14 12 8 5 3 3 3 3 3 3 3 3 2 2
43 47 55 34 8 10 16 18 18 18 19 22 26 27 28 28 26 25 23 22 20 14 12 9 7 5 5 4 3 3 4 4 4 4 4 3 3 2
52 54 24 8 14 18 19 18 18 21 26 29 29 28 27 26 25 23 20 18 16 14 13 12 11 8 6 4 4 4 5 5 5 4 4 4 5 7
44 10 9 15 18 19 18 18 22 29 30 30 29 29 29 27 24 23 21 20 20 19 19 18 16 14 12 10 8 7 6 6 6 6 7 9 12 15
6 8 14 16 18 18 18 23 30 32 31 30 31 32 31 28 26 24 24 24 26 26 26 25 22 19 16 14 11 9 8 8 8 9 10 13 15 19
7 12 14 18 18 18 23 30 32 32 31 33 36 36 35 33 30 30 30 33 35 35 31 31 29 27 23 20 16 12 10 10 11 12 14 16 18 20
10 13 16 17 18 23 29 32 32 33 35 37 39 40 40 41 42 44 45 44 43 42 39 37 36 33 28 22 19 15 13 13 14 15 16 18 18 18
11 14 16 17 21 27 31 32 33 34 36 38 40 40 42 48 52 52 50 49 48 46 44 44 43 40 34 27 21 19 16 15 15 16 19 21 22 23
13 15 15 18 23 27 29 30 32 33 34 36 38 40 42 46 55 58 55 53 52 50 48 46 47 45 39 32 28 23 21 21 19 20 22 24 27 29
13 14 16 20 23 25 27 28 28 30 31 33 36 40 43 48 58 63 60 57 56 52 50 50 51 50 45 38 33 28 26 25 26 26 26 30 33 35
13 14 17 19 21 23 24 24 25 26 27 28 31 34 38 49 62 66 64 62 60 57 56 57 56 54 51 46 39 35 34 35 35 36 36 37 42 48
14 15 16 18 19 20 21 22 23 24 24 26 28 31 36 49 68 71 69 67 65 63 62 62 61 60 57 49 45 44 41 38 36 34 36 36 40 51
15 15 16 17 18 19 20 21 22 25 31 25 27 30 36 53 74 73 69 69 68 67 68 68 67 65 60 53 48 45 44 45 46 52 55 56 52 58
19 19 19 20 20 20 21 22 22 37 66 42 28 30 35 56 78 78 73 72 72 72 72 72 71 67 61 56 49 52 51 52 56 53 50 47 45 51
25 25 24 25 25 24 24 24 24 29 69 73 48 69 88 86 90 88 80 77 75 75 76 77 74 70 64 55 49 57 62 55 50 48 48 46 47 49
27 28 31 32 29 29 33 36 40 47 52 92 92 87 95 97 97 94 85 82 82 80 80 81 79 73 63 54 52 54 50 46 48 50 50 57 55 45
90 88 90 72 44 48 72 59 63 83 80 95 90 90 95 95 97 94 88 87 86 85 85 84 83 74 62 56 55 48 40 43 49 53 58 66 64 62

GFSNE_700_rhum_090.txt.gz
RH
22 22 22 22 27 31 35 40 40 51 46 23 27 40 37 35 34 35 38 37 35 43 42 44 44 46 49 50 54 58 60 66 65 99 99 92 99 99
21 20 22 29 32 30 30 34 39 29 27 32 39 38 36 36 38 27 28 33 29 28 38 44 43 47 45 47 58 65 93 100 100 100 100 89 92 92
22 23 30 30 25 20 23 22 25 31 38 40 40 40 39 42 14 7 6 7 7 6 6 7 9 12 10 11 39 61 72 87 86 81 75 74 83 85
26 28 27 21 18 16 18 29 36 43 43 42 41 41 38 16 7 10 12 13 13 14 14 13 12 10 9 7 5 12 35 45 44 32 18 27 60 64
32 24 18 18 17 20 31 40 44 43 41 25 14 8 9 12 14 16 18 19 20 20 21 21 20 19 17 15 12 9 7 5 4 4 4 3 3 4
22 20 20 23 24 35 42 46 44 22 9 10 14 16 18 19 20 22 24 25 25 24 24 23 22 20 18 15 11 8 6 4 3 3 3 3 3 3
33 32 32 36 39 46 47 32 8 12 16 18 19 20 22 24 26 26 25 25 24 22 21 18 16 14 12 10 8 6 4 3 4 4 4 4 4 4
42 39 43 44 49 51 18 9 16 19 19 19 22 26 28 27 26 25 24 23 21 18 16 15 13 12 11 9 5 4 4 4 4 5 5 5 5 4
51 50 50 57 46 10 11 18 20 20 19 25 29 28 28 27 27 26 24 22 21 20 19 19 19 18 17 16 14 12 10 9 8 7 6 6 6 5
55 58 61 39 8 13 18 19 19 19 25 30 30 29 28 29 29 28 25 23 22 23 24 26 27 26 24 22 22 19 17 15 13 11 9 8 7 8
66 51 16 7 14 17 19 19 19 25 31 32 30 30 32 34 33 31 29 28 28 30 32 35 33 32 31 30 28 27 26 23 18 14 11 10 10 11
41 7 6 12 15 18 19 19 25 31 32 32 32 36 37 38 37 37 36 36 39 42 40 38 38 36 36 35 33 34 30 26 21 17 14 12 12 13
12 6 10 13 16 18 18 22 29 32 33 34 36 37 39 40 40 43 47 49 48 45 45 43 43 43 42 42 39 39 34 31 26 20 14 14 14 15
6 8 11 14 16 17 19 26 30 32 33 34 35 37 39 42 43 44 48 53 55 52 49 49 47 44 43 45 46 42 40 37 34 29 23 18 17 18
7 9 12 15 16 17 22 27 30 30 31 32 33 34 37 41 43 45 49 55 60 59 55 53 49 47 47 49 50 48 44 41 39 34 30 26 24 24
8 10 13 14 16 18 22 25 27 27 27 28 29 30 32 34 36 39 48 59 65 62 60 58 55 54 55 55 55 54 52 47 42 40 38 36 35 35
10 12 13 14 15 18 21 22 23 24 24 25 25 27 28 30 32 36 47 63 67 65 65 63 60 60 61 61 61 59 54 49 47 46 43 39 36 36
11 12 12 13 15 17 18 19 20 21 21 22 24 29 31 29 33 35 43 64 71 66 65 64 64 64 65 65 63 60 57 54 50 46 42 39 43 47
13 13 13 14 15 16 17 17 18 19 20 21 23 48 76 89 56 59 65 62 78 73 70 69 68 66 66 70 70 64 60 55 50 45 44 43 39 40
18 17 17 18 18 18 19 20 20 21 22 22 23 27 54 90 89 88 95 92 90 86 77 73 72 71 70 70 72 68 64 56 51 49 48 41 34 33
25 25 24 24 24 24 24 24 25 26 28 26 29 55 90 75 87 92 95 91 91 93 80 78 74 73 74 73 74 71 61 57 53 50 42 36 36 35
52 35 29 28 27 27 28 36 59 49 35 54 75 59 57 76 92 94 94 93 93 92 83 81 81 79 79 77 76 76 66 59 54 45 38 38 37 35
98 97 98 94 87 92 95 96 96 91 95 95 95 95 95 92 95 95 94 95 94 97 90 89 88 86 86 83 82 79 70 59 46 41 41 43 42 42

GFSNE_700_rhum_093.txt.gz
RH
22 21 22 22 23 23 26 26 38 40 46 47 49 27 31 39 35 34 36 38 36 38 38 39 42 44 44 48 51 53 53 62 55 61 60 76 100 100
23 23 22 22 22 23 26 32 33 31 35 44 27 34 43 39 37 39 27 22 22 14 7 10 23 28 36 29 20 43 55 57 63 66 73 96 100 87
24 23 23 22 23 29 31 26 25 28 25 25 37 42 41 39 40 34 7 6 9 10 11 11 10 9 9 8 8 6 12 36 48 65 60 57 51 69
24 25 25 25 28 28 23 20 21 20 29 37 42 40 40 40 38 8 9 13 15 17 17 18 18 18 17 16 15 14 12 8 13 29 30 18 7 6
29 28 29 32 28 20 20 19 22 33 41 44 42 34 21 9 10 14 17 20 21 22 23 24 24 23 22 21 18 16 14 12 9 7 5 4 3 3
37 36 35 27 21 21 22 23 34 44 46 39 11 10 13 17 19 20 23 25 26 25 24 23 22 20 19 17 16 14 10 7 4 3 3 3 4 4
44 38 30 32 33 32 32 37 48 48 19 9 14 18 19 21 24 27 27 26 24 23 22 18 16 13 12 9 6 5 4 4 4 4 4 4 5 5
39 36 45 42 39 41 42 51 47 9 12 19 20 20 23 28 28 27 26 26 24 22 19 19 18 18 17 17 16 15 14 12 10 9 8 8 7 6
44 52 55 52 50 51 58 44 9 15 20 20 20 27 30 29 28 28 28 27 24 22 21 20 21 22 23 25 24 23 22 21 19 17 16 14 12 10
58 59 58 58 60 62 35 9 17 20 20 20 29 32 31 29 29 30 30 29 26 25 25 26 28 30 31 30 30 30 29 28 28 26 26 24 19 16
62 64 66 69 68 20 10 17 20 20 20 29 32 32 30 32 35 35 35 34 32 31 31 33 37 37 35 35 34 33 33 33 34 32 30 27 22 18
74 77 63 39 9 10 16 18 20 20 26 32 32 32 34 37 39 40 40 41 43 46 45 44 44 41 40 39 38 37 35 35 36 37 34 31 26 22
83 62 12 5 10 13 17 19 20 24 31 33 34 34 36 38 40 42 43 44 46 50 53 52 50 47 45 44 40 39 38 39 41 42 42 39 34 26
81 36 6 7 11 15 18 19 22 28 33 34 34 34 35 37 39 43 45 46 48 50 54 58 56 52 51 48 45 44 46 46 47 46 44 43 39 31
64 15 20 9 13 16 18 20 25 30 32 32 32 31 32 33 34 36 37 38 43 52 59 60 60 58 56 53 52 54 54 52 52 52 49 47 43 39
53 37 14 10 14 16 18 20 23 26 28 27 27 27 28 28 29 31 33 36 40 50 62 64 63 62 61 59 58 58 57 58 59 57 53 49 46 45
10 7 8 11 13 15 16 18 20 22 23 24 24 24 24 25 27 29 31 36 47 45 57 69 67 65 64 62 62 61 60 61 60 58 56 54 49 46
8 9 10 11 12 13 14 16 18 19 20 20 20 20 21 22 28 52 74 81 83 86 73 74 74 69 68 66 60 60 61 64 63 62 61 57 50 45
10 10 11 11 12 12 13 14 16 16 17 18 18 19 20 21 23 38 50 93 92 91 92 86 85 77 69 70 67 65 66 64 65 68 64 57 52 49
16 14 14 14 14 14 14 15 15 16 17 18 19 21 22 24 28 28 71 90 82 93 92 88 90 83 72 69 67 73 69 68 68 67 64 59 53 46
26 25 24 23 22 21 21 21 20 20 21 23 24 27 62 43 40 89 87 65 88 95 92 94 91 86 76 73 75 79 78 75 72 69 67 62 53 42
96 94 94 94 76 46 34 32 30 32 40 50 70 92 79 63 87 88 75 91 94 96 95 96 96 92 87 82 82 82 85 84 80 75 71 64 53 39
97 96 96 96 96 96 96 94 94 95 96 96 97 96 96 97 99 98 97 96 97 98 98 95 93 91 93 91 88 86 89 89 86 82 74 62 47 35

GFSNE_700_rhum_096.txt.gz
RH
41 34 30 26 25 26 26 26 28 27 28 36 44 39 46 31 30 39 38 38 38 31 33 30 31 40 44 45 48 51 67 96 100 100 100 99 75 65
34 30 27 26 26 26 26 25 27 32 37 33 35 32 30 30 42 41 38 39 20 20 10 6 8 11 16 33 39 23 45 59 91 93 88 64 72 68
34 31 28 27 27 27 27 29 29 32 32 27 29 22 33 43 43 43 42 15 6 9 11 12 12 12 12 11 10 10 8 16 39 45 56 51 45 35
30 30 31 31 30 30 29 32 32 27 23 21 22 33 44 45 43 43 31 8 11 14 16 18 18 19 19 18 17 16 15 14 12 12 11 21 16 12
34 34 34 34 34 36 36 33 25 22 21 21 33 46 46 44 38 23 9 14 18 20 22 24 24 23 23 22 21 20 18 16 14 12 9 7 5 4
39 42 44 43 39 39 33 25 23 23 24 35 47 50 39 18 11 15 19 21 23 26 25 23 22 22 20 19 17 16 15 12 10 8 5 4 3 4
45 47 49 48 42 35 32 33 32 30 40 53 49 20 11 17 20 22 25 27 26 25 24 21 19 17 14 12 10 9 7 5 4 4 4 4 4 5
47 49 50 44 41 44 43 42 41 45 58 48 10 14 20 21 24 28 28 27 26 25 22 21 20 19 18 18 18 17 17 17 16 14 13 12 11 11
47 47 46 46 56 55 53 51 52 61 36 10 18 21 21 28 30 29 29 28 28 26 24 22 21 22 22 24 26 27 26 25 25 24 24 23 22 20
49 50 54 59 65 63 61 63 70 27 11 19 21 22 29 32 31 30 30 31 30 29 27 26 26 27 29 32 33 32 31 31 30 29 28 29 29 27
54 60 66 67 69 70 71 70 17 12 19 21 22 29 33 32 32 34 36 36 35 34 33 32 33 37 39 38 37 36 35 34 32 30 29 30 32 31
64 72 75 79 79 82 62 13 13 18 21 22 26 32 34 34 36 38 40 40 41 42 44 45 46 45 45 43 42 40 39 36 33 33 33 36 37 36
77 81 88 66 30 17 9 13 17 21 21 25 33 35 35 36 38 39 41 43 45 46 48 50 51 51 51 50 48 47 44 40 39 42 41 42 43 42
87 90 90 53 6 7 11 16 20 21 23 31 36 36 35 36 36 37 39 42 43 43 44 50 56 57 58 57 54 52 48 45 46 50 49 49 48 48
96 95 77 54 20 10 19 45 28 22 26 32 34 33 33 32 32 32 33 34 35 37 40 46 55 62 62 61 59 57 54 52 54 54 52 53 53 53
96 97 93 65 71 57 38 18 20 23 27 30 31 30 29 28 28 28 28 29 30 33 36 44 52 60 65 64 64 63 59 58 56 53 56 56 55 54
77 95 74 47 46 14 14 17 19 20 24 25 26 26 25 24 24 24 24 26 30 46 73 77 86 77 70 68 65 64 62 60 53 53 58 61 61 59
84 36 13 12 10 11 13 14 15 17 19 20 21 21 21 21 21 21 21 24 41 69 59 87 90 88 84 77 71 69 64 59 55 57 58 61 65 63
22 17 14 10 10 11 12 12 13 14 15 16 17 17 18 18 18 19 19 20 25 61 74 88 84 90 86 86 79 75 68 59 57 60 61 62 64 64
16 12 11 11 11 11 11 12 12 13 14 14 15 15 16 17 18 19 20 27 78 69 87 75 86 90 88 89 86 81 74 68 67 69 70 67 66 67
29 24 21 20 19 18 17 16 16 16 17 17 18 18 19 20 21 26 56 92 79 85 90 56 88 93 90 88 90 89 84 78 77 76 75 72 71 70
94 93 92 69 46 44 41 42 35 35 45 60 58 36 32 43 67 87 95 95 92 96 88 92 95 94 89 89 92 94 94 93 90 86 84 79 75 72
97 97 97 96 97 97 96 96 96 96 96 96 95 95 95 95 96 96 96 96 96 96 97 98 98 97 95 92 92 94 96 95 94 94 91 85 80 75

GFSNE_700_rhum_099.txt.gz
RH
69 57 43 42 39 34 32 33 36 34 30 34 39 42 43 55 49 38 31 41 41 38 34 33 35 28 37 42 43 44 49 93 99 100 100 100 96 99
59 52 44 40 37 34 34 34 35 35 36 33 40 36 57 41 39 29 39 45 43 28 22 16 7 9 14 25 36 46 49 92 90 87 100 94 100 99
72 76 49 38 35 34 34 33 36 38 38 35 35 34 37 35 30 37 47 45 42 8 9 10 11 12 12 11 13 13 15 33 80 78 88 100 95 75
76 60 43 38 36 37 41 40 38 39 40 39 34 31 30 28 36 49 48 47 22 10 13 15 17 18 18 18 17 16 14 13 12 14 20 22 19 20
47 42 39 44 43 47 49 48 46 45 40 34 30 29 27 36 51 50 48 38 9 15 18 21 22 23 24 23 22 22 21 20 19 18 15 13 11 9
43 42 44 47 50 50 53 52 48 42 33 30 30 29 36 54 53 43 18 14 19 21 24 26 25 24 23 22 21 20 19 18 16 15 13 10 6 4
48 52 52 48 50 51 52 49 42 37 36 34 32 40 56 55 19 15 20 22 25 27 26 24 23 21 19 16 15 13 10 8 7 6 5 5 4 4
55 56 53 51 48 49 50 47 49 46 43 39 47 60 45 12 19 22 24 29 29 26 26 24 22 20 18 18 17 17 17 16 17 16 16 15 15 14
58 58 57 53 47 48 54 59 61 53 50 58 65 36 13 21 22 27 31 30 29 28 27 26 23 21 20 21 22 24 26 26 25 25 25 25 25 25
56 58 60 54 51 61 66 67 66 61 61 71 29 15 21 22 29 32 31 30 30 30 29 27 25 25 25 27 29 32 32 31 31 30 30 28 26 27
60 65 65 57 66 71 72 73 73 77 70 21 15 21 24 30 34 33 32 34 35 35 34 32 32 31 32 35 38 38 37 36 35 34 32 28 28 26
69 76 69 72 76 78 81 87 85 59 13 16 21 24 31 35 35 35 37 39 40 41 41 42 42 44 45 45 45 43 41 40 39 38 35 36 39 36
76 81 78 83 88 79 80 77 34 12 16 26 29 29 34 36 36 38 40 41 42 43 45 47 48 49 50 50 52 52 49 47 45 43 40 43 47 44
83 88 90 93 73 35 20 23 24 36 36 25 30 31 35 36 37 38 38 38 40 42 42 43 44 48 54 57 57 58 57 55 52 48 46 50 51 47
94 95 98 92 92 38 16 11 14 17 38 61 46 32 36 37 37 35 34 34 34 35 35 36 40 44 52 57 61 62 61 59 57 55 54 55 53 48
95 96 96 97 64 57 49 34 25 49 60 42 26 33 37 36 34 32 30 29 29 29 30 31 34 52 72 78 70 66 64 62 62 60 59 57 48 45
98 99 93 94 94 66 60 58 65 61 44 23 25 30 31 31 30 28 26 25 24 25 25 29 55 68 62 82 85 78 72 67 64 62 61 54 48 46
97 82 72 88 50 48 38 24 18 16 18 20 21 23 26 26 25 24 22 22 21 21 21 26 54 51 80 82 84 86 81 74 70 68 63 54 51 48
71 88 78 37 24 20 17 13 11 13 14 15 16 18 20 21 20 19 19 18 18 18 19 20 26 64 83 86 84 86 88 84 78 73 63 59 59 62
32 16 11 11 12 11 10 10 11 11 12 13 13 14 15 16 16 15 16 16 17 18 19 23 63 89 83 81 83 90 92 88 85 76 67 67 69 69
88 44 22 18 15 14 12 12 12 12 12 12 13 13 14 14 15 16 16 18 20 20 23 71 96 83 86 80 82 95 96 92 90 85 77 77 79 78
98 97 97 94 92 88 76 57 58 59 45 28 22 21 20 25 44 63 61 45 41 44 78 96 96 89 87 89 92 94 97 99 96 93 88 85 81 79
97 97 97 97 97 97 96 97 97 97 96 96 97 96 96 96 96 95 95 96 96 95 95 96 95 92 90 92 94 94 96 98 100 99 94 92 85 82

GFSNE_700_rhum_102.txt.gz
RH
78 69 69 69 64 53 47 44 39 36 34 33 34 33 41 43 84 47 44 46 42 41 42 38 32 34 27 34 39 40 42 44 87 91 99 100 95 100
82 78 76 75 73 67 69 58 39 37 35 35 36 44 39 37 50 63 43 39 36 47 43 28 30 10 14 23 36 44 47 58 96 93 98 99 94 81
79 80 82 79 78 83 68 46 39 42 38 38 41 43 44 43 38 36 46 40 48 48 38 13 10 10 11 11 17 38 44 82 94 99 100 69 100 87
86 77 72 62 52 47 44 41 42 47 45 47 46 46 43 41 36 36 33 47 53 50 20 10 12 15 16 16 16 18 20 16 36 76 56 88 58 77
70 60 51 47 46 47 48 47 47 50 51 51 49 46 40 34 35 33 46 56 53 44 10 14 18 20 22 22 22 20 19 17 16 17 15 16 15 18
48 46 47 46 46 48 49 53 52 52 52 51 47 40 34 34 34 46 58 55 52 12 17 21 23 26 26 24 24 23 22 21 20 18 17 16 15 12
45 47 46 50 52 53 52 50 49 49 50 46 42 38 35 35 49 58 56 23 16 21 24 27 27 25 24 22 20 19 17 16 15 14 12 9 7 6
58 58 57 57 57 56 54 50 46 47 49 48 49 46 40 49 65 43 17 20 23 27 28 27 25 24 21 19 17 15 14 13 13 13 12 12 13 14
50 52 54 54 54 56 57 51 48 51 56 59 53 48 59 71 33 16 23 24 30 30 28 27 26 24 22 20 19 19 19 19 21 22 22 23 23 24
51 54 54 56 57 60 58 53 56 64 68 65 61 66 69 27 18 23 27 32 31 30 30 28 27 25 23 23 23 25 27 29 30 29 29 28 28 27
55 57 60 62 62 66 60 60 67 72 73 73 77 71 25 18 23 29 33 33 32 32 32 32 31 29 29 28 29 32 36 37 35 34 33 32 32 29
54 57 63 65 72 69 66 72 76 78 79 84 56 16 18 23 30 35 35 34 35 38 39 39 40 41 43 45 45 45 44 42 40 39 38 37 36 34
60 65 69 71 78 75 81 81 84 90 72 24 14 19 24 31 37 36 36 37 40 41 42 44 46 48 49 50 51 52 52 50 49 47 45 43 41 40
66 71 74 83 86 87 84 40 47 42 36 16 31 49 44 49 64 45 38 39 40 40 41 44 44 43 43 47 52 58 59 58 57 56 53 50 47 46
71 74 86 94 93 94 82 79 41 52 47 58 65 54 46 59 43 39 39 38 40 37 37 39 40 35 37 40 48 66 69 66 62 60 58 56 53 53
71 77 88 97 99 93 94 70 19 14 17 21 41 53 46 42 39 40 39 36 34 32 30 29 29 30 32 39 66 51 63 77 73 66 63 62 60 58
75 83 90 99 97 98 77 42 54 47 40 47 51 58 45 32 39 39 35 33 31 28 26 25 24 25 28 45 60 49 76 81 81 76 68 65 63 61
83 97 97 84 80 77 88 78 67 66 64 58 54 44 31 25 28 30 31 29 27 24 23 22 21 21 23 35 36 55 83 85 82 81 77 70 69 66
86 80 80 85 73 67 61 59 47 44 34 28 25 19 20 22 22 22 24 23 22 21 20 19 19 19 19 21 26 69 93 89 85 84 83 80 76 69
95 58 33 29 43 52 58 41 27 28 18 13 12 13 14 15 16 17 18 18 18 17 16 16 17 17 19 23 55 96 96 92 88 87 87 85 83 74
97 97 95 75 36 21 15 14 18 15 12 12 11 11 11 12 12 13 14 14 16 23 25 19 21 42 59 47 72 96 95 91 87 88 87 86 88 82
98 98 98 97 97 95 90 89 87 83 76 59 42 44 37 29 24 33 51 55 40 23 21 32 53 75 70 70 93 95 97 97 90 90 88 88 88 89
96 97 98 97 97 97 96 97 96 96 97 97 97 96 96 96 96 95 94 87 89 94 96 96 95 92 87 92 95 96 96 96 96 93 88 92 91 91

GFSNE_700_rhum_105.txt.gz
RH
81 91 78 80 80 74 72 73 75 72 64 65 61 38 34 34 36 36 38 34 57 52 43 33 41 37 33 35 35 38 30 28 28 47 66 73 98 94
68 71 72 77 78 77 78 78 80 76 81 76 50 39 39 39 40 42 40 36 38 43 38 46 42 31 29 23 34 40 41 42 54 85 92 94 97 99
77 82 82 84 85 85 80 77 60 52 49 48 48 43 44 47 46 42 39 36 30 31 41 51 35 24 9 13 21 32 44 48 55 88 99 99 98 91
88 92 90 95 92 70 55 46 43 45 44 44 47 51 53 54 49 43 37 31 33 36 52 49 16 14 11 13 13 22 37 60 71 70 92 100 98 93
97 99 79 67 55 46 42 41 44 47 46 46 48 52 53 54 47 39 32 31 34 52 53 52 11 14 17 18 18 17 18 63 99 99 99 100 100 86
78 71 56 46 41 40 42 46 50 52 49 47 47 51 52 47 39 35 32 32 52 59 56 20 13 19 21 23 24 23 20 20 20 21 27 29 28 18
52 44 42 47 51 51 52 52 53 52 51 48 48 50 49 44 40 37 36 52 61 60 29 14 21 24 26 26 25 24 23 22 20 19 18 17 16 14
43 46 42 40 43 48 48 50 53 54 52 48 48 51 52 49 44 41 53 66 50 19 20 23 27 28 26 24 22 19 17 15 13 12 11 8 6 6
41 39 38 37 40 47 50 51 53 55 53 50 52 59 59 53 48 62 68 32 20 22 26 28 28 26 24 22 19 18 17 15 15 14 14 14 16 17
42 41 41 47 52 52 55 56 57 57 53 56 63 68 66 61 72 64 22 20 25 29 30 29 28 27 24 22 21 20 20 20 21 23 24 24 24 25
47 48 54 55 52 57 59 62 62 59 62 67 70 72 72 77 60 19 21 25 30 32 31 30 29 27 26 25 24 25 26 28 30 32 32 31 30 30
62 61 57 55 61 64 66 68 64 66 73 76 80 82 81 42 18 21 28 33 34 34 35 38 64 44 34 34 36 37 38 39 40 39 38 36 36 35
68 64 60 60 65 68 72 75 76 78 85 88 85 56 20 17 23 32 35 36 39 58 67 69 46 57 52 50 51 50 50 51 50 48 46 44 42 41
72 67 62 65 70 77 84 85 85 52 62 51 26 14 17 26 32 38 52 47 45 53 44 45 74 76 52 47 45 49 54 58 59 58 57 56 53 50
74 70 66 70 78 90 92 93 67 34 30 26 30 26 56 63 57 75 62 50 50 41 45 80 51 74 82 82 44 40 48 65 65 67 66 62 60 58
74 72 71 74 78 96 96 90 83 84 48 54 46 53 61 53 56 78 66 44 42 39 46 58 34 35 37 37 37 35 54 60 49 67 74 72 66 63
80 76 75 80 87 96 95 94 95 89 47 23 19 22 33 44 47 39 36 42 41 40 40 33 30 27 26 25 25 27 39 47 40 74 78 81 76 68
88 85 84 91 95 87 80 88 72 50 47 46 42 50 58 60 53 46 32 38 41 39 32 30 27 24 23 22 22 23 29 36 36 78 87 92 86 77
97 95 87 82 80 77 78 69 52 72 72 63 65 56 46 49 47 39 28 28 26 29 28 25 23 22 20 19 19 20 22 24 40 83 88 88 85 83
98 99 96 76 57 53 62 50 52 67 72 77 65 62 58 52 43 18 15 17 19 21 20 19 19 18 18 17 17 18 20 51 76 83 86 85 85 87
96 98 97 97 96 90 68 36 25 28 44 63 56 37 18 13 12 12 12 13 14 14 15 15 15 16 19 29 43 42 62 69 71 85 87 86 84 85
90 90 99 98 98 97 96 96 95 93 86 84 66 46 28 40 59 56 30 13 16 20 18 27 56 68 63 58 51 59 81 90 82 92 90 90 87 85
95 97 99 99 97 98 98 98 97 97 98 97 96 97 97 96 96 95 96 97 97 96 95 96 93 83 85 90 97 97 95 96 95 94 90 91 89 89

GFSNE_700_rhum_108.txt.gz
RH
99 93 85 73 82 68 70 74 78 75 75 72 75 68 68 72 59 40 38 36 39 39 38 42 38 28 38 37 36 35 35 31 30 29 72 87 98 96
89 82 78 73 75 78 78 80 82 83 77 70 61 46 43 47 49 45 44 43 46 42 40 37 39 38 44 34 31 33 38 35 29 35 73 86 97 91
88 82 80 79 83 85 87 88 90 78 58 46 42 41 43 46 48 51 50 49 45 43 35 38 37 47 39 31 21 40 44 47 71 57 62 72 81 99
67 77 87 86 92 95 96 75 63 51 44 42 41 41 44 47 49 53 55 50 43 40 36 36 50 54 28 11 17 18 40 54 61 68 88 100 100 100
73 83 84 93 86 78 67 53 44 40 41 40 42 46 47 50 53 55 52 46 40 36 36 44 58 54 18 13 14 40 100 100 99 96 92 79 89 97
77 76 70 67 59 49 42 44 47 48 50 48 48 49 48 49 52 52 48 40 36 35 40 60 62 39 13 16 18 21 36 50 62 73 85 96 99 100
68 62 52 46 42 46 46 45 49 51 50 51 51 52 50 48 50 50 45 41 39 42 62 64 59 16 16 21 22 22 21 21 47 99 100 99 91 91
54 48 43 42 40 37 37 37 42 45 46 47 49 51 50 50 53 53 50 45 46 63 67 61 20 19 23 26 26 25 24 22 22 20 22 23 20 18
46 43 42 40 39 38 39 42 48 49 49 51 52 53 53 57 61 59 53 54 66 66 35 21 22 26 28 26 24 22 19 18 17 16 16 15 13 10
48 47 46 47 45 43 46 48 48 50 54 56 56 54 58 64 68 63 63 71 50 25 23 26 28 28 28 25 23 20 18 16 15 13 13 12 12 13
50 49 50 55 56 55 52 51 51 56 60 60 58 59 65 70 71 72 77 40 20 25 31 33 32 29 27 24 22 21 20 21 20 21 22 24 25 25
59 61 63 64 60 58 56 58 61 62 63 64 66 68 72 76 80 76 33 19 25 31 33 32 31 39 60 50 43 31 27 27 28 30 33 34 33 32
61 69 71 72 66 62 62 65 66 70 71 74 78 81 80 81 56 22 19 27 33 34 34 42 61 75 60 64 66 51 46 45 45 45 44 42 40 39
64 73 73 74 71 68 71 73 78 80 76 64 70 69 57 21 17 22 31 35 36 39 56 67 70 54 66 92 62 54 52 53 55 55 55 54 53 51
74 75 75 74 72 68 70 80 88 87 71 42 48 46 26 17 24 33 38 54 49 42 46 45 45 50 65 92 90 91 75 69 64 62 63 64 64 61
76 78 79 76 70 69 72 87 92 84 77 80 74 34 30 48 61 56 64 71 59 64 56 42 59 83 56 57 59 80 82 80 56 60 54 48 65 71
78 83 80 75 71 74 80 86 88 89 92 88 45 30 44 44 50 51 58 83 88 57 43 41 42 46 35 32 30 28 27 28 31 46 44 40 67 74
88 90 86 81 79 81 86 86 80 84 86 67 67 51 28 27 34 40 57 43 54 38 42 41 40 36 32 29 26 24 23 23 24 27 32 32 56 76
96 94 94 90 86 81 79 76 76 68 76 65 60 65 53 49 65 67 77 56 31 29 32 37 41 33 29 27 25 22 21 20 20 21 23 26 49 76
95 96 96 93 91 86 71 64 66 58 60 66 60 58 60 56 51 48 46 44 31 18 18 19 20 22 25 23 21 19 18 18 18 18 19 42 73 80
90 88 91 97 95 93 93 87 66 43 39 47 56 57 56 58 57 52 40 26 26 30 23 15 17 19 17 16 17 16 16 17 20 29 61 72 77 76
100 91 91 92 93 98 97 96 97 98 97 93 78 53 30 27 28 29 32 44 56 58 45 20 18 19 38 38 21 27 62 74 79 81 78 75 86 92
94 95 97 93 96 100 98 98 97 97 96 96 96 97 97 96 96 96 97 98 96 84 87 90 92 84 67 68 84 94 94 94 87 87 88 93 93 94

GFSNE_700_rhum_111.txt.gz
RH
73 82 86 96 96 94 82 79 74 75 74 78 75 75 65 57 47 40 42 50 52 47 47 44 44 40 36 32 32 38 36 36 35 33 30 53 75 85
75 95 100 96 88 86 81 81 79 82 79 80 77 66 53 46 43 40 44 45 46 50 50 45 43 40 35 35 41 36 34 38 36 32 31 60 80 87
78 96 91 85 78 78 81 82 85 86 85 72 59 50 43 42 43 44 46 48 50 51 50 44 39 36 36 46 43 29 32 41 38 31 63 78 90 99
99 94 75 72 76 78 81 90 91 74 64 53 42 39 40 41 46 46 47 47 51 52 48 41 37 36 40 56 36 27 50 56 65 85 62 75 79 98
72 69 65 61 73 79 69 68 60 50 47 43 43 42 43 46 47 48 48 49 50 49 44 36 34 35 52 51 21 37 76 66 65 93 87 88 88 94
69 66 56 59 66 67 54 44 39 44 50 47 51 47 46 50 51 52 49 48 49 46 40 34 35 50 61 40 21 58 97 99 100 73 90 100 98 100
69 58 57 61 58 49 40 40 40 37 36 36 41 43 44 48 52 53 51 50 50 46 41 37 50 64 62 20 18 19 91 100 100 99 99 98 89 91
67 58 62 54 46 40 37 35 36 36 38 40 44 45 50 53 54 54 54 55 53 50 45 53 64 67 33 17 20 21 24 47 29 31 60 59 88 96
64 63 52 42 39 39 40 42 41 41 42 48 49 50 56 57 56 55 59 61 56 52 59 66 59 26 20 23 26 26 26 25 23 22 23 73 96 94
64 53 44 45 46 46 47 46 50 48 51 48 48 52 56 57 57 60 66 66 63 65 62 36 23 24 27 28 27 25 25 21 21 19 19 19 19 18
58 50 53 53 51 49 50 61 58 54 52 52 56 58 59 60 62 67 70 69 76 55 24 23 28 31 29 28 26 25 24 20 18 16 15 13 12 11
58 58 58 54 55 59 60 65 64 62 61 59 63 64 64 65 68 72 76 78 54 22 23 32 32 30 29 27 27 26 23 21 22 22 22 22 22 23
63 63 58 56 66 67 68 70 66 64 66 70 74 73 73 77 78 80 75 43 20 23 28 31 32 31 48 70 65 58 42 39 40 33 33 33 34 34
71 66 59 64 75 71 68 70 69 70 76 82 79 68 73 72 62 39 22 19 25 32 33 34 48 69 72 58 59 80 89 90 83 71 55 51 50 47
82 70 65 73 76 70 70 70 69 74 85 86 77 48 49 46 26 16 20 30 34 37 37 43 58 56 54 58 80 85 68 78 79 80 64 60 62 62
87 74 67 71 76 73 71 70 72 80 90 87 77 66 61 32 28 22 32 36 52 56 48 51 62 50 47 54 65 78 77 87 94 93 78 67 63 50
80 74 69 72 76 78 75 74 79 83 87 86 88 89 66 50 37 54 61 56 62 68 61 69 63 44 49 74 64 41 50 39 38 42 49 48 47 41
79 82 83 85 84 84 82 81 86 89 82 80 87 91 66 27 22 32 37 47 61 78 73 67 46 45 43 41 39 34 31 28 26 25 24 25 27 30
90 90 94 91 88 87 88 86 84 77 77 71 74 58 53 54 49 39 42 41 49 65 61 64 36 40 43 43 41 33 29 27 26 23 21 21 21 22
92 93 91 91 90 91 94 94 83 67 67 66 60 66 65 62 61 54 41 64 76 60 46 35 24 21 25 24 24 24 24 23 22 21 20 19 19 20
94 95 96 91 86 86 92 96 97 95 74 43 44 50 54 58 61 64 66 66 62 57 49 44 31 32 32 28 22 23 22 20 23 22 18 17 18 20
95 93 98 97 95 92 92 89 95 99 99 98 98 92 79 58 39 27 30 38 42 42 40 33 35 38 38 29 21 21 26 36 43 30 22 25 44 71
96 95 95 97 98 97 97 94 94 99 98 98 97 97 97 97 97 97 96 96 96 96 93 91 88 88 91 91 92 89 83 71 70 77 86 90 89 86

GFSNE_700_rhum_114.txt.gz
RH
67 69 73 75 80 83 91 93 86 90 84 79 74 72 76 72 61 51 43 43 43 43 43 45 46 47 42 38 32 30 28 35 35 32 31 34 36 66
57 62 66 65 70 85 93 89 89 86 79 79 75 76 68 55 46 40 39 38 40 44 43 47 45 44 41 36 30 29 30 36 34 34 34 32 38 62
66 66 80 74 87 89 88 80 69 73 75 75 71 56 44 39 37 36 40 45 45 46 45 45 43 43 38 33 31 34 39 30 37 36 33 51 61 76
74 74 88 98 99 84 73 65 74 74 60 56 43 36 37 44 48 46 45 45 42 46 46 44 46 40 34 31 38 47 32 32 43 40 40 61 63 83
76 100 99 87 71 66 56 70 68 62 47 37 34 42 37 40 47 47 47 48 46 46 44 44 44 37 32 33 54 44 19 47 62 93 82 76 80 93
98 84 79 73 66 57 60 62 56 45 37 35 35 35 38 37 39 45 45 47 49 48 46 46 43 36 33 48 60 33 34 63 89 98 99 90 87 85
85 81 74 70 60 61 58 51 43 37 35 33 32 32 36 37 43 48 49 50 51 49 48 49 44 38 42 61 52 29 47 100 97 97 81 95 100 99
88 92 84 69 57 56 50 42 39 38 38 38 38 36 38 40 46 50 52 53 52 50 52 52 46 50 62 64 30 21 26 98 98 98 99 100 95 99
90 90 79 66 59 52 46 46 45 45 44 43 41 41 44 46 46 50 52 53 53 58 57 53 53 66 65 36 18 20 21 28 96 100 100 79 52 54
93 74 67 64 54 48 50 51 50 48 49 50 54 52 48 50 51 55 54 54 63 64 63 63 61 43 25 22 24 26 26 25 28 47 30 23 23 31
84 74 67 61 53 54 54 51 52 54 54 56 56 58 55 53 56 59 55 61 70 72 71 56 30 24 25 28 28 27 29 26 22 20 32 41 25 20
83 74 66 56 58 59 54 50 64 65 62 64 63 63 59 61 64 64 66 73 80 82 60 25 24 28 31 31 29 30 34 25 21 19 17 16 14 12
88 79 67 63 64 60 53 53 64 63 66 70 67 69 73 72 72 74 78 83 79 49 24 22 31 33 30 29 31 33 32 31 27 23 23 24 26 27
89 78 69 70 70 62 55 53 63 67 68 67 70 79 84 71 73 72 60 45 28 21 23 29 31 32 34 57 70 64 64 69 54 49 50 48 52 49
88 78 75 77 81 65 56 58 69 70 69 68 79 90 82 52 48 42 24 17 19 26 32 34 33 46 69 71 60 61 76 73 79 87 80 82 74 74
87 80 82 84 76 65 58 61 75 73 70 75 91 93 80 53 48 30 27 20 28 34 39 40 40 43 49 47 52 72 69 81 82 88 91 94 95 95
90 91 88 84 70 60 62 72 82 80 81 84 88 86 83 89 77 42 29 39 46 55 64 52 76 86 93 94 65 63 74 62 76 60 58 70 89 92
95 96 85 67 64 76 85 89 90 89 88 91 86 82 88 95 51 28 38 40 51 51 61 77 88 89 80 56 46 51 47 44 35 36 33 26 26 26
97 89 76 71 87 94 94 94 94 93 91 81 75 75 69 53 57 59 32 24 29 34 49 76 92 90 87 48 46 44 42 39 32 30 28 27 24 23
90 83 87 91 95 95 94 93 97 98 92 75 64 70 63 70 68 65 60 51 44 50 63 70 88 93 79 34 33 32 31 31 32 32 26 25 23 21
94 93 95 98 98 97 96 91 90 97 98 97 78 52 53 55 58 65 66 66 66 58 55 55 46 42 44 51 58 46 26 23 22 22 24 24 24 30
96 94 98 96 94 94 99 98 95 96 96 97 99 98 97 94 86 71 54 46 42 41 44 46 46 42 44 43 33 31 25 24 29 39 46 49 45 45
95 95 96 99 100 100 97 96 96 99 98 94 100 98 97 97 97 97 97 97 97 97 96 96 96 93 90 90 89 93 95 94 77 57 68 63 54 69

GFSNE_700_rhum_117.txt.gz
RH
98 97 84 87 74 72 73 99 99 100 100 92 84 71 62 66 68 63 48 39 36 35 38 36 36 37 38 40 40 32 27 25 25 26 30 32 34 37
93 84 82 69 62 65 70 76 71 96 94 78 66 63 71 69 52 38 32 33 32 32 32 35 38 40 39 41 35 31 25 23 27 32 32 34 33 39
89 77 69 65 67 69 69 91 88 87 73 64 65 66 57 47 37 42 43 44 44 41 38 35 39 42 42 41 36 30 25 23 32 31 31 36 35 34
78 74 71 74 80 72 100 94 96 69 56 63 60 54 40 36 39 35 34 37 40 38 39 39 39 42 41 39 34 29 24 31 30 32 37 39 57 64
79 75 73 74 94 100 97 78 65 50 52 57 49 39 36 36 36 36 37 36 36 37 35 39 43 43 44 40 33 29 31 38 29 49 44 48 66 79
80 77 84 91 91 79 71 61 51 50 51 45 37 33 34 34 34 36 38 42 44 43 39 39 45 45 45 40 33 36 45 47 80 81 94 86 87 93
78 83 92 86 82 71 67 55 51 52 46 38 36 37 39 40 39 40 40 44 48 48 46 47 46 46 45 40 39 54 52 34 99 100 100 99 99 99
71 97 92 87 86 85 69 57 53 45 39 41 43 44 44 42 41 43 44 43 47 48 48 50 50 49 45 44 54 61 40 95 100 95 98 99 98 98
100 94 93 94 89 74 62 56 47 44 48 50 48 46 45 44 46 47 46 48 52 53 52 53 53 52 51 55 64 48 22 26 98 88 98 100 98 99
95 98 93 93 78 65 59 53 48 52 50 48 48 54 55 53 53 51 48 47 52 54 54 58 59 58 58 59 40 20 18 20 30 88 100 99 90 90
97 97 92 91 76 66 61 53 55 55 52 50 57 65 64 61 59 56 55 56 60 62 66 64 64 58 40 25 22 24 26 26 26 25 54 90 100 81
93 87 85 86 79 70 62 58 60 56 52 56 65 65 68 65 64 61 61 63 66 68 72 71 60 29 24 25 28 28 27 27 24 21 20 19 19 19
91 79 66 85 82 74 64 65 65 58 53 64 67 66 69 70 70 68 68 72 75 76 74 61 30 24 28 31 31 29 26 26 24 23 21 21 18 15
93 97 78 100 90 76 69 74 71 60 56 66 70 67 66 70 75 77 70 69 61 52 43 25 22 26 32 31 30 43 54 48 48 43 31 26 25 26
98 79 96 99 90 78 77 79 72 63 58 71 73 68 70 75 81 69 53 57 40 22 19 21 29 32 32 31 60 70 68 69 77 77 84 66 66 64
89 100 100 100 88 80 83 81 72 62 64 73 76 72 72 81 83 67 61 57 41 22 25 33 35 34 36 55 77 80 74 83 81 82 85 91 94 95
100 100 100 97 91 91 86 80 69 64 74 81 80 79 80 82 84 86 88 66 34 28 31 38 44 44 57 66 82 85 76 94 88 81 91 81 85 95
100 100 99 95 96 91 85 68 74 85 91 87 85 83 83 80 81 88 81 68 48 50 54 57 60 64 90 95 95 92 89 81 92 90 54 68 56 38
100 100 98 97 98 90 81 74 89 94 91 89 87 85 80 74 72 77 79 73 39 41 59 59 62 84 84 92 92 68 57 49 45 56 68 35 44 70
100 98 97 96 96 84 78 92 93 92 90 92 93 87 77 77 70 68 74 68 64 50 38 39 42 47 61 72 93 95 84 66 49 44 63 54 38 32
97 97 96 96 91 80 88 92 93 90 84 86 93 96 92 81 74 70 71 73 75 75 70 65 61 68 73 70 59 70 67 56 46 33 24 22 24 25
97 97 96 96 89 84 85 85 84 88 87 88 91 92 95 96 95 87 83 74 66 60 59 51 54 56 56 63 61 54 40 28 26 25 39 50 53 46
97 96 96 93 90 89 88 91 92 88 89 92 95 98 94 96 98 96 96 97 97 95 96 97 96 93 93 90 88 85 77 68 60 76 85 79 50 31